www.cux-wetter.de
Wetterdaten: Montag, 24.08.2015
Datum Zeit Temp. A. Feuchte A. Luftdruck Regen Wind Richtung Richtung Sonnenschein Solar Taupunkt Windchill Windben
24.08.2015 00:00 18,6 C 74 % 1007,7 hPa 0,0 l/m 8,2 km/h (2 Bft) W-SW 238 0 min 0 W/m 13,9 C 17,8 C 22,5 km/h (4 Bft)
24.08.2015 00:03 18,6 C 73 % 1007,8 hPa 0,0 l/m 8,6 km/h (2 Bft) N-NO 23 0 min 0 W/m 13,7 C 17,6 C 17,7 km/h (3 Bft)
24.08.2015 00:06 18,6 C 73 % 1007,6 hPa 0,0 l/m 8,6 km/h (2 Bft) NO 46 0 min 0 W/m 13,7 C 17,6 C 22,5 km/h (4 Bft)
24.08.2015 00:09 18,6 C 74 % 1007,7 hPa 0,0 l/m 5,6 km/h (2 Bft) O 88 0 min 0 W/m 13,9 C 18,6 C 14,5 km/h (3 Bft)
24.08.2015 00:12 18,5 C 74 % 1007,7 hPa 0,0 l/m 6,1 km/h (2 Bft) N 360 0 min 0 W/m 13,8 C 18,5 C 14,5 km/h (3 Bft)
24.08.2015 00:15 18,4 C 74 % 1007,7 hPa 0,0 l/m 4,6 km/h (1 Bft) N 5 0 min 0 W/m 13,7 C 18,4 C 12,9 km/h (3 Bft)
24.08.2015 00:18 18,3 C 74 % 1007,6 hPa 0,0 l/m 6,3 km/h (2 Bft) S-SO 163 0 min 0 W/m 13,6 C 18,3 C 14,5 km/h (3 Bft)
24.08.2015 00:21 18,3 C 74 % 1007,5 hPa 0,0 l/m 5,0 km/h (1 Bft) NO 46 0 min 0 W/m 13,6 C 18,3 C 11,3 km/h (2 Bft)
24.08.2015 00:24 18,3 C 74 % 1007,5 hPa 0,0 l/m 6,2 km/h (2 Bft) N-NO 30 0 min 0 W/m 13,6 C 18,3 C 14,5 km/h (3 Bft)
24.08.2015 00:27 18,3 C 74 % 1007,4 hPa 0,0 l/m 6,4 km/h (2 Bft) O-SO 105 0 min 0 W/m 13,6 C 18,3 C 14,5 km/h (3 Bft)
24.08.2015 00:30 18,3 C 74 % 1007,5 hPa 0,0 l/m 6,8 km/h (2 Bft) N-NO 22 0 min 0 W/m 13,6 C 18,1 C 20,9 km/h (4 Bft)
24.08.2015 00:33 18,2 C 74 % 1007,4 hPa 0,0 l/m 5,4 km/h (2 Bft) O-NO 63 0 min 0 W/m 13,5 C 18,2 C 16,1 km/h (3 Bft)
24.08.2015 00:36 18,2 C 75 % 1007,4 hPa 0,0 l/m 4,9 km/h (1 Bft) SO 130 0 min 0 W/m 13,7 C 18,2 C 11,3 km/h (2 Bft)
24.08.2015 00:39 18,2 C 75 % 1007,4 hPa 0,0 l/m 4,4 km/h (1 Bft) O-NO 62 0 min 0 W/m 13,7 C 18,2 C 11,3 km/h (2 Bft)
24.08.2015 00:42 18,2 C 75 % 1007,3 hPa 0,0 l/m 6,3 km/h (2 Bft) O-SO 117 0 min 0 W/m 13,7 C 18,2 C 14,5 km/h (3 Bft)
24.08.2015 00:45 18,2 C 75 % 1007,3 hPa 0,0 l/m 7,2 km/h (2 Bft) N-NO 23 0 min 0 W/m 13,7 C 17,8 C 16,1 km/h (3 Bft)
24.08.2015 00:48 18,2 C 75 % 1007,3 hPa 0,0 l/m 5,2 km/h (1 Bft) NO 35 0 min 0 W/m 13,7 C 18,2 C 14,5 km/h (3 Bft)
24.08.2015 00:51 18,1 C 76 % 1007,1 hPa 0,0 l/m 7,2 km/h (2 Bft) O-NO 58 0 min 0 W/m 13,8 C 17,7 C 17,7 km/h (3 Bft)
24.08.2015 00:54 18,1 C 75 % 1007,2 hPa 0,0 l/m 9,0 km/h (2 Bft) O-SO 105 0 min 0 W/m 13,6 C 16,9 C 22,5 km/h (4 Bft)
24.08.2015 00:57 18,2 C 76 % 1007,1 hPa 0,0 l/m 5,7 km/h (2 Bft) O 84 0 min 0 W/m 13,9 C 18,2 C 12,9 km/h (3 Bft)
24.08.2015 01:00 18,1 C 76 % 1007,1 hPa 0,0 l/m 7,9 km/h (2 Bft) O-NO 59 0 min 0 W/m 13,8 C 17,4 C 19,3 km/h (3 Bft)
24.08.2015 01:03 18,1 C 76 % 1007,1 hPa 0,0 l/m 6,6 km/h (2 Bft) O-NO 64 0 min 0 W/m 13,8 C 18,0 C 14,5 km/h (3 Bft)
24.08.2015 01:06 18,0 C 76 % 1007,1 hPa 0,0 l/m 5,4 km/h (2 Bft) S-SO 157 0 min 0 W/m 13,7 C 18,0 C 22,5 km/h (4 Bft)
24.08.2015 01:09 17,9 C 77 % 1007,0 hPa 0,0 l/m 5,5 km/h (2 Bft) NO 34 0 min 0 W/m 13,8 C 17,9 C 19,3 km/h (3 Bft)
24.08.2015 01:12 17,9 C 77 % 1006,9 hPa 0,0 l/m 7,2 km/h (2 Bft) NO 36 0 min 0 W/m 13,8 C 17,5 C 19,3 km/h (3 Bft)
24.08.2015 01:15 17,9 C 77 % 1006,9 hPa 0,0 l/m 5,6 km/h (2 Bft) O 80 0 min 0 W/m 13,8 C 17,9 C 14,5 km/h (3 Bft)
24.08.2015 01:18 17,9 C 77 % 1006,9 hPa 0,0 l/m 5,7 km/h (2 Bft) W-SW 256 0 min 0 W/m 13,8 C 17,9 C 16,1 km/h (3 Bft)
24.08.2015 01:21 17,9 C 77 % 1006,8 hPa 0,0 l/m 6,9 km/h (2 Bft) O-SO 105 0 min 0 W/m 13,8 C 17,7 C 17,7 km/h (3 Bft)
24.08.2015 01:24 17,9 C 77 % 1006,8 hPa 0,0 l/m 6,2 km/h (2 Bft) O 100 0 min 0 W/m 13,8 C 17,9 C 16,1 km/h (3 Bft)
24.08.2015 01:27 17,9 C 77 % 1006,8 hPa 0,0 l/m 7,4 km/h (2 Bft) O-SO 115 0 min 0 W/m 13,8 C 17,4 C 17,7 km/h (3 Bft)
24.08.2015 01:30 17,9 C 78 % 1006,7 hPa 0,0 l/m 6,0 km/h (2 Bft) O-NO 63 0 min 0 W/m 14,0 C 17,9 C 14,5 km/h (3 Bft)
24.08.2015 01:33 17,8 C 78 % 1006,7 hPa 0,0 l/m 4,8 km/h (1 Bft) N-NO 27 0 min 0 W/m 13,9 C 17,8 C 16,1 km/h (3 Bft)
24.08.2015 01:36 17,8 C 78 % 1006,6 hPa 0,0 l/m 7,2 km/h (2 Bft) NO 42 0 min 0 W/m 13,9 C 17,4 C 24,1 km/h (4 Bft)
24.08.2015 01:39 17,8 C 78 % 1006,6 hPa 0,0 l/m 7,3 km/h (2 Bft) N 360 0 min 0 W/m 13,9 C 17,4 C 16,1 km/h (3 Bft)
24.08.2015 01:42 17,8 C 77 % 1006,6 hPa 0,0 l/m 6,3 km/h (2 Bft) S 182 0 min 0 W/m 13,7 C 17,8 C 19,3 km/h (3 Bft)
24.08.2015 01:45 17,8 C 77 % 1006,5 hPa 0,0 l/m 5,3 km/h (1 Bft) O-NO 57 0 min 0 W/m 13,7 C 17,8 C 16,1 km/h (3 Bft)
24.08.2015 01:48 17,8 C 77 % 1006,5 hPa 0,0 l/m 9,1 km/h (2 Bft) SO 138 0 min 0 W/m 13,7 C 16,6 C 19,3 km/h (3 Bft)
24.08.2015 01:51 17,8 C 77 % 1006,4 hPa 0,0 l/m 5,3 km/h (1 Bft) O 86 0 min 0 W/m 13,7 C 17,8 C 11,3 km/h (2 Bft)
24.08.2015 01:54 17,8 C 77 % 1006,4 hPa 0,0 l/m 4,6 km/h (1 Bft) SW 216 0 min 0 W/m 13,7 C 17,8 C 14,5 km/h (3 Bft)
24.08.2015 01:57 17,8 C 77 % 1006,4 hPa 0,0 l/m 5,9 km/h (2 Bft) N-NO 14 0 min 0 W/m 13,7 C 17,8 C 20,9 km/h (4 Bft)
24.08.2015 02:00 17,7 C 77 % 1006,4 hPa 0,0 l/m 6,0 km/h (2 Bft) W 265 0 min 0 W/m 13,6 C 17,7 C 11,3 km/h (2 Bft)
24.08.2015 02:03 17,7 C 77 % 1006,3 hPa 0,0 l/m 9,8 km/h (2 Bft) O 100 0 min 0 W/m 13,6 C 16,2 C 24,1 km/h (4 Bft)
24.08.2015 02:06 17,7 C 76 % 1006,4 hPa 0,0 l/m 6,2 km/h (2 Bft) N-NO 24 0 min 0 W/m 13,4 C 17,7 C 14,5 km/h (3 Bft)
24.08.2015 02:09 17,7 C 76 % 1006,4 hPa 0,0 l/m 5,8 km/h (2 Bft) O-SO 109 0 min 0 W/m 13,4 C 17,7 C 12,9 km/h (3 Bft)
24.08.2015 02:12 17,6 C 77 % 1006,3 hPa 0,0 l/m 6,3 km/h (2 Bft) O-SO 119 0 min 0 W/m 13,5 C 17,6 C 16,1 km/h (3 Bft)
24.08.2015 02:15 17,6 C 76 % 1006,2 hPa 0,0 l/m 6,3 km/h (2 Bft) O 86 0 min 0 W/m 13,3 C 17,6 C 16,1 km/h (3 Bft)
24.08.2015 02:18 17,6 C 77 % 1006,2 hPa 0,0 l/m 6,3 km/h (2 Bft) O-NO 58 0 min 0 W/m 13,5 C 17,6 C 16,1 km/h (3 Bft)
24.08.2015 02:21 17,6 C 77 % 1006,2 hPa 0,0 l/m 6,2 km/h (2 Bft) O-NO 78 0 min 0 W/m 13,5 C 17,6 C 16,1 km/h (3 Bft)
24.08.2015 02:24 17,5 C 78 % 1006,2 hPa 0,0 l/m 4,4 km/h (1 Bft) NO 38 0 min 0 W/m 13,6 C 17,5 C 9,7 km/h (2 Bft)
24.08.2015 02:27 17,4 C 78 % 1006,2 hPa 0,0 l/m 5,4 km/h (2 Bft) O 95 0 min 0 W/m 13,5 C 17,4 C 19,3 km/h (3 Bft)
24.08.2015 02:30 17,4 C 78 % 1006,2 hPa 0,0 l/m 6,3 km/h (2 Bft) O-NO 59 0 min 0 W/m 13,5 C 17,4 C 19,3 km/h (3 Bft)
24.08.2015 02:33 17,4 C 78 % 1006,2 hPa 0,0 l/m 8,2 km/h (2 Bft) SO 134 0 min 0 W/m 13,5 C 16,5 C 17,7 km/h (3 Bft)
24.08.2015 02:36 17,4 C 78 % 1006,1 hPa 0,0 l/m 3,8 km/h (1 Bft) SO 125 0 min 0 W/m 13,5 C 17,4 C 14,5 km/h (3 Bft)
24.08.2015 02:39 17,3 C 78 % 1006,1 hPa 0,0 l/m 7,2 km/h (2 Bft) NO 38 0 min 0 W/m 13,4 C 16,9 C 20,9 km/h (4 Bft)
24.08.2015 02:42 17,3 C 78 % 1006,0 hPa 0,0 l/m 5,1 km/h (1 Bft) SO 144 0 min 0 W/m 13,4 C 17,3 C 12,9 km/h (3 Bft)
24.08.2015 02:45 17,3 C 78 % 1006,0 hPa 0,0 l/m 6,7 km/h (2 Bft) O-SO 103 0 min 0 W/m 13,4 C 17,2 C 20,9 km/h (4 Bft)
24.08.2015 02:48 17,2 C 79 % 1005,9 hPa 0,0 l/m 5,1 km/h (1 Bft) NO 50 0 min 0 W/m 13,5 C 17,2 C 11,3 km/h (2 Bft)
24.08.2015 02:51 17,2 C 78 % 1006,0 hPa 0,0 l/m 3,6 km/h (1 Bft) NO 46 0 min 0 W/m 13,3 C 17,2 C 8,0 km/h (2 Bft)
24.08.2015 02:54 17,2 C 79 % 1006,0 hPa 0,0 l/m 7,4 km/h (2 Bft) S 176 0 min 0 W/m 13,5 C 16,7 C 17,7 km/h (3 Bft)
24.08.2015 02:57 17,2 C 79 % 1006,0 hPa 0,0 l/m 4,8 km/h (1 Bft) O-SO 118 0 min 0 W/m 13,5 C 17,2 C 14,5 km/h (3 Bft)
24.08.2015 03:00 17,2 C 79 % 1005,9 hPa 0,0 l/m 4,1 km/h (1 Bft) S 169 0 min 0 W/m 13,5 C 17,2 C 11,3 km/h (2 Bft)
24.08.2015 03:03 17,2 C 79 % 1005,9 hPa 0,0 l/m 5,4 km/h (2 Bft) NW 316 0 min 0 W/m 13,5 C 17,2 C 12,9 km/h (3 Bft)
24.08.2015 03:06 17,1 C 79 % 1005,9 hPa 0,0 l/m 5,2 km/h (1 Bft) O-NO 77 0 min 0 W/m 13,4 C 17,1 C 16,1 km/h (3 Bft)
24.08.2015 03:09 17,1 C 79 % 1005,8 hPa 0,0 l/m 3,9 km/h (1 Bft) N 9 0 min 0 W/m 13,4 C 17,1 C 14,5 km/h (3 Bft)
24.08.2015 03:12 17,1 C 79 % 1005,7 hPa 0,0 l/m 6,5 km/h (2 Bft) O-NO 57 0 min 0 W/m 13,4 C 17,1 C 17,7 km/h (3 Bft)
24.08.2015 03:15 17,1 C 79 % 1005,7 hPa 0,0 l/m 5,5 km/h (2 Bft) O 101 0 min 0 W/m 13,4 C 17,1 C 17,7 km/h (3 Bft)
24.08.2015 03:18 17,0 C 79 % 1005,7 hPa 0,0 l/m 5,4 km/h (2 Bft) O 90 0 min 0 W/m 13,3 C 17,0 C 14,5 km/h (3 Bft)
24.08.2015 03:21 17,0 C 79 % 1005,6 hPa 0,0 l/m 5,5 km/h (2 Bft) O-NO 71 0 min 0 W/m 13,3 C 17,0 C 11,3 km/h (2 Bft)
24.08.2015 03:24 17,0 C 79 % 1005,7 hPa 0,0 l/m 6,3 km/h (2 Bft) NO 56 0 min 0 W/m 13,3 C 17,0 C 14,5 km/h (3 Bft)
24.08.2015 03:27 17,0 C 79 % 1005,6 hPa 0,0 l/m 6,2 km/h (2 Bft) SO 139 0 min 0 W/m 13,3 C 17,0 C 14,5 km/h (3 Bft)
24.08.2015 03:30 17,0 C 79 % 1005,5 hPa 0,0 l/m 6,2 km/h (2 Bft) NW 306 0 min 0 W/m 13,3 C 17,0 C 16,1 km/h (3 Bft)
24.08.2015 03:33 16,9 C 79 % 1005,4 hPa 0,0 l/m 4,3 km/h (1 Bft) NO 56 0 min 0 W/m 13,2 C 16,9 C 12,9 km/h (3 Bft)
24.08.2015 03:36 16,9 C 80 % 1005,5 hPa 0,0 l/m 4,5 km/h (1 Bft) NO 51 0 min 0 W/m 13,4 C 16,9 C 6,4 km/h (2 Bft)
24.08.2015 03:39 17,0 C 80 % 1005,4 hPa 0,0 l/m 5,8 km/h (2 Bft) O-NO 61 0 min 0 W/m 13,5 C 17,0 C 16,1 km/h (3 Bft)
24.08.2015 03:42 17,0 C 80 % 1005,4 hPa 0,0 l/m 6,3 km/h (2 Bft) NO 47 0 min 0 W/m 13,5 C 17,0 C 14,5 km/h (3 Bft)
24.08.2015 03:45 17,0 C 79 % 1005,4 hPa 0,0 l/m 7,0 km/h (2 Bft) SO 124 0 min 0 W/m 13,3 C 16,7 C 16,1 km/h (3 Bft)
24.08.2015 03:48 17,0 C 79 % 1005,4 hPa 0,0 l/m 7,1 km/h (2 Bft) S-SW 202 0 min 0 W/m 13,3 C 16,6 C 20,9 km/h (4 Bft)
24.08.2015 03:51 17,1 C 79 % 1005,4 hPa 0,0 l/m 5,9 km/h (2 Bft) O 86 0 min 0 W/m 13,4 C 17,1 C 17,7 km/h (3 Bft)
24.08.2015 03:54 17,1 C 79 % 1005,4 hPa 0,0 l/m 6,9 km/h (2 Bft) SW 217 0 min 0 W/m 13,4 C 16,9 C 14,5 km/h (3 Bft)
24.08.2015 03:57 17,1 C 79 % 1005,4 hPa 0,0 l/m 5,5 km/h (2 Bft) NO 34 0 min 0 W/m 13,4 C 17,1 C 14,5 km/h (3 Bft)
24.08.2015 04:00 17,1 C 80 % 1005,4 hPa 0,0 l/m 6,7 km/h (2 Bft) NO 36 0 min 0 W/m 13,6 C 17,0 C 16,1 km/h (3 Bft)
24.08.2015 04:03 17,1 C 80 % 1005,3 hPa 0,0 l/m 5,3 km/h (1 Bft) NO 51 0 min 0 W/m 13,6 C 17,1 C 11,3 km/h (2 Bft)
24.08.2015 04:06 17,1 C 80 % 1005,3 hPa 0,0 l/m 5,8 km/h (2 Bft) SO 130 0 min 0 W/m 13,6 C 17,1 C 17,7 km/h (3 Bft)
24.08.2015 04:09 17,1 C 80 % 1005,3 hPa 0,0 l/m 5,0 km/h (1 Bft) N-NO 30 0 min 0 W/m 13,6 C 17,1 C 14,5 km/h (3 Bft)
24.08.2015 04:12 17,1 C 80 % 1005,3 hPa 0,0 l/m 4,8 km/h (1 Bft) O-SO 121 0 min 0 W/m 13,6 C 17,1 C 14,5 km/h (3 Bft)
24.08.2015 04:15 17,1 C 79 % 1005,3 hPa 0,0 l/m 6,2 km/h (2 Bft) O-NO 60 0 min 0 W/m 13,4 C 17,1 C 16,1 km/h (3 Bft)
24.08.2015 04:18 17,1 C 80 % 1005,3 hPa 0,0 l/m 3,8 km/h (1 Bft) NW 317 0 min 0 W/m 13,6 C 17,1 C 9,7 km/h (2 Bft)
24.08.2015 04:21 17,1 C 80 % 1005,2 hPa 0,0 l/m 4,5 km/h (1 Bft) O-NO 63 0 min 0 W/m 13,6 C 17,1 C 11,3 km/h (2 Bft)
24.08.2015 04:24 17,1 C 80 % 1005,2 hPa 0,0 l/m 5,9 km/h (2 Bft) S-SO 150 0 min 0 W/m 13,6 C 17,1 C 19,3 km/h (3 Bft)
24.08.2015 04:27 17,1 C 79 % 1005,2 hPa 0,0 l/m 4,9 km/h (1 Bft) NO 34 0 min 0 W/m 13,4 C 17,1 C 14,5 km/h (3 Bft)
24.08.2015 04:30 17,2 C 79 % 1005,2 hPa 0,0 l/m 6,5 km/h (2 Bft) O-SO 112 0 min 0 W/m 13,5 C 17,2 C 16,1 km/h (3 Bft)
24.08.2015 04:33 17,2 C 79 % 1005,2 hPa 0,0 l/m 8,1 km/h (2 Bft) S-SO 157 0 min 0 W/m 13,5 C 16,4 C 22,5 km/h (4 Bft)
24.08.2015 04:36 17,2 C 78 % 1005,1 hPa 0,0 l/m 6,4 km/h (2 Bft) O-NO 64 0 min 0 W/m 13,3 C 17,2 C 14,5 km/h (3 Bft)
24.08.2015 04:39 17,2 C 78 % 1005,1 hPa 0,0 l/m 7,1 km/h (2 Bft) O 96 0 min 0 W/m 13,3 C 16,9 C 20,9 km/h (4 Bft)
24.08.2015 04:42 17,2 C 79 % 1005,1 hPa 0,0 l/m 7,4 km/h (2 Bft) NO 40 0 min 0 W/m 13,5 C 16,7 C 17,7 km/h (3 Bft)
24.08.2015 04:45 17,2 C 79 % 1005,0 hPa 0,0 l/m 5,0 km/h (1 Bft) NO 40 0 min 0 W/m 13,5 C 17,2 C 11,3 km/h (2 Bft)
24.08.2015 04:48 17,2 C 79 % 1004,9 hPa 0,0 l/m 6,7 km/h (2 Bft) N-NO 25 0 min 0 W/m 13,5 C 17,1 C 17,7 km/h (3 Bft)
24.08.2015 04:51 17,2 C 78 % 1004,9 hPa 0,0 l/m 7,0 km/h (2 Bft) SO 136 0 min 0 W/m 13,3 C 16,9 C 20,9 km/h (4 Bft)
24.08.2015 04:54 17,2 C 79 % 1004,8 hPa 0,0 l/m 5,1 km/h (1 Bft) NO 53 0 min 0 W/m 13,5 C 17,2 C 16,1 km/h (3 Bft)
24.08.2015 04:57 17,1 C 79 % 1004,8 hPa 0,0 l/m 6,1 km/h (2 Bft) O 81 0 min 0 W/m 13,4 C 17,1 C 16,1 km/h (3 Bft)
24.08.2015 05:00 17,1 C 79 % 1004,8 hPa 0,0 l/m 6,5 km/h (2 Bft) N-NO 28 0 min 0 W/m 13,4 C 17,1 C 14,5 km/h (3 Bft)
24.08.2015 05:03 17,2 C 79 % 1004,8 hPa 0,0 l/m 9,1 km/h (2 Bft) NO 53 0 min 0 W/m 13,5 C 15,9 C 19,3 km/h (3 Bft)
24.08.2015 05:06 17,2 C 79 % 1004,8 hPa 0,0 l/m 3,7 km/h (1 Bft) O-SO 115 0 min 0 W/m 13,5 C 17,2 C 11,3 km/h (2 Bft)
24.08.2015 05:09 17,2 C 79 % 1004,7 hPa 0,0 l/m 8,3 km/h (2 Bft) O-SO 115 0 min 0 W/m 13,5 C 16,3 C 22,5 km/h (4 Bft)
24.08.2015 05:12 17,2 C 79 % 1004,8 hPa 0,0 l/m 4,5 km/h (1 Bft) N-NO 16 0 min 0 W/m 13,5 C 17,2 C 11,3 km/h (2 Bft)
24.08.2015 05:15 17,2 C 80 % 1004,7 hPa 0,0 l/m 5,0 km/h (1 Bft) O-NO 71 0 min 0 W/m 13,7 C 17,2 C 14,5 km/h (3 Bft)
24.08.2015 05:18 17,1 C 80 % 1004,7 hPa 0,0 l/m 5,7 km/h (2 Bft) SO 134 0 min 0 W/m 13,6 C 17,1 C 17,7 km/h (3 Bft)
24.08.2015 05:21 17,1 C 80 % 1004,7 hPa 0,0 l/m 8,4 km/h (2 Bft) O 84 0 min 0 W/m 13,6 C 16,1 C 24,1 km/h (4 Bft)
24.08.2015 05:24 17,1 C 80 % 1004,7 hPa 0,0 l/m 4,3 km/h (1 Bft) SO 146 0 min 0 W/m 13,6 C 17,1 C 19,3 km/h (3 Bft)
24.08.2015 05:27 17,1 C 80 % 1004,7 hPa 0,0 l/m 4,5 km/h (1 Bft) S 180 0 min 0 W/m 13,6 C 17,1 C 12,9 km/h (3 Bft)
24.08.2015 05:30 17,1 C 80 % 1004,6 hPa 0,0 l/m 5,8 km/h (2 Bft) O-NO 58 0 min 0 W/m 13,6 C 17,1 C 16,1 km/h (3 Bft)
24.08.2015 05:33 17,1 C 80 % 1004,6 hPa 0,0 l/m 6,3 km/h (2 Bft) N 360 0 min 0 W/m 13,6 C 17,1 C 16,1 km/h (3 Bft)
24.08.2015 05:36 17,1 C 79 % 1004,5 hPa 0,0 l/m 8,1 km/h (2 Bft) S 174 0 min 0 W/m 13,4 C 16,3 C 24,1 km/h (4 Bft)
24.08.2015 05:39 17,1 C 78 % 1004,5 hPa 0,0 l/m 7,5 km/h (2 Bft) O-SO 103 0 min 0 W/m 13,2 C 16,5 C 20,9 km/h (4 Bft)
24.08.2015 05:42 17,1 C 78 % 1004,5 hPa 0,0 l/m 7,2 km/h (2 Bft) W-NW 301 0 min 0 W/m 13,2 C 16,7 C 19,3 km/h (3 Bft)
24.08.2015 05:45 17,2 C 78 % 1004,4 hPa 0,0 l/m 8,3 km/h (2 Bft) O 88 0 min 0 W/m 13,3 C 16,3 C 20,9 km/h (4 Bft)
24.08.2015 05:48 17,2 C 78 % 1004,4 hPa 0,0 l/m 5,9 km/h (2 Bft) O-SO 115 0 min 0 W/m 13,3 C 17,2 C 16,1 km/h (3 Bft)
24.08.2015 05:51 17,1 C 78 % 1004,4 hPa 0,0 l/m 7,4 km/h (2 Bft) O-NO 66 0 min 0 W/m 13,2 C 16,6 C 16,1 km/h (3 Bft)
24.08.2015 05:54 17,1 C 78 % 1004,4 hPa 0,0 l/m 6,2 km/h (2 Bft) W-SW 254 0 min 0 W/m 13,2 C 17,1 C 17,7 km/h (3 Bft)
24.08.2015 05:57 17,1 C 78 % 1004,4 hPa 0,0 l/m 7,5 km/h (2 Bft) S 180 0 min 0 W/m 13,2 C 16,5 C 22,5 km/h (4 Bft)
24.08.2015 06:00 17,1 C 78 % 1004,3 hPa 0,0 l/m 6,5 km/h (2 Bft) O-NO 77 0 min 0 W/m 13,2 C 17,1 C 17,7 km/h (3 Bft)
24.08.2015 06:03 17,0 C 78 % 1004,2 hPa 0,0 l/m 5,6 km/h (2 Bft) S 186 0 min 0 W/m 13,1 C 17,0 C 17,7 km/h (3 Bft)
24.08.2015 06:06 17,0 C 78 % 1004,3 hPa 0,0 l/m 7,0 km/h (2 Bft) NW 316 0 min 0 W/m 13,1 C 16,7 C 17,7 km/h (3 Bft)
24.08.2015 06:09 17,0 C 78 % 1004,3 hPa 0,0 l/m 5,9 km/h (2 Bft) O 86 0 min 0 W/m 13,1 C 17,0 C 14,5 km/h (3 Bft)
24.08.2015 06:12 17,0 C 78 % 1004,2 hPa 0,0 l/m 8,2 km/h (2 Bft) S-SO 148 0 min 0 W/m 13,1 C 16,1 C 22,5 km/h (4 Bft)
24.08.2015 06:15 17,0 C 78 % 1004,3 hPa 0,0 l/m 8,1 km/h (2 Bft) O-SO 102 0 min 0 W/m 13,1 C 16,2 C 20,9 km/h (4 Bft)
24.08.2015 06:18 17,0 C 78 % 1004,2 hPa 0,0 l/m 5,9 km/h (2 Bft) O 88 0 min 0 W/m 13,1 C 17,0 C 16,1 km/h (3 Bft)
24.08.2015 06:21 17,0 C 78 % 1004,3 hPa 0,0 l/m 7,7 km/h (2 Bft) NO 42 0 min 0 W/m 13,1 C 16,3 C 17,7 km/h (3 Bft)
24.08.2015 06:24 16,9 C 78 % 1004,4 hPa 0,0 l/m 7,8 km/h (2 Bft) O-SO 107 0 min 0 W/m 13,0 C 16,2 C 24,1 km/h (4 Bft)
24.08.2015 06:27 16,9 C 78 % 1004,2 hPa 0,0 l/m 6,8 km/h (2 Bft) O-NO 77 0 min 5 W/m 13,0 C 16,7 C 14,5 km/h (3 Bft)
24.08.2015 06:30 16,9 C 78 % 1004,3 hPa 0,0 l/m 7,8 km/h (2 Bft) O-NO 76 0 min 5 W/m 13,0 C 16,2 C 20,9 km/h (4 Bft)
24.08.2015 06:33 16,9 C 79 % 1004,3 hPa 0,0 l/m 5,5 km/h (2 Bft) O 92 0 min 7 W/m 13,2 C 16,9 C 22,5 km/h (4 Bft)
24.08.2015 06:36 16,9 C 78 % 1004,3 hPa 0,0 l/m 6,0 km/h (2 Bft) N 5 0 min 7 W/m 13,0 C 16,9 C 12,9 km/h (3 Bft)
24.08.2015 06:39 16,9 C 78 % 1004,4 hPa 0,0 l/m 9,5 km/h (2 Bft) S 175 0 min 9 W/m 13,0 C 15,4 C 20,9 km/h (4 Bft)
24.08.2015 06:42 16,9 C 78 % 1004,3 hPa 0,0 l/m 7,2 km/h (2 Bft) O 98 0 min 12 W/m 13,0 C 16,5 C 25,7 km/h (4 Bft)
24.08.2015 06:45 16,9 C 78 % 1004,3 hPa 0,0 l/m 6,1 km/h (2 Bft) S-SO 148 0 min 14 W/m 13,0 C 16,9 C 19,3 km/h (3 Bft)
24.08.2015 06:48 16,9 C 78 % 1004,3 hPa 0,0 l/m 6,5 km/h (2 Bft) S-SO 161 0 min 14 W/m 13,0 C 16,9 C 17,7 km/h (3 Bft)
24.08.2015 06:51 16,8 C 79 % 1004,3 hPa 0,0 l/m 9,0 km/h (2 Bft) S 169 0 min 16 W/m 13,1 C 15,5 C 27,4 km/h (5 Bft)
24.08.2015 06:54 16,8 C 78 % 1004,3 hPa 0,0 l/m 7,5 km/h (2 Bft) N-NW 339 0 min 16 W/m 12,9 C 16,2 C 17,7 km/h (3 Bft)
24.08.2015 06:57 16,8 C 78 % 1004,2 hPa 0,0 l/m 9,0 km/h (2 Bft) W-SW 238 0 min 18 W/m 12,9 C 15,5 C 19,3 km/h (3 Bft)
24.08.2015 07:00 16,8 C 79 % 1004,3 hPa 0,0 l/m 5,3 km/h (1 Bft) NO 36 0 min 18 W/m 13,1 C 16,8 C 16,1 km/h (3 Bft)
24.08.2015 07:03 16,8 C 79 % 1004,2 hPa 0,0 l/m 4,9 km/h (1 Bft) W-NW 297 0 min 18 W/m 13,1 C 16,8 C 11,3 km/h (2 Bft)
24.08.2015 07:06 16,8 C 79 % 1004,2 hPa 0,0 l/m 6,7 km/h (2 Bft) S 169 0 min 18 W/m 13,1 C 16,7 C 16,1 km/h (3 Bft)
24.08.2015 07:09 16,8 C 79 % 1004,2 hPa 0,0 l/m 5,5 km/h (2 Bft) O-SO 115 0 min 18 W/m 13,1 C 16,8 C 17,7 km/h (3 Bft)
24.08.2015 07:12 16,8 C 79 % 1004,2 hPa 0,0 l/m 6,0 km/h (2 Bft) O 95 0 min 18 W/m 13,1 C 16,8 C 16,1 km/h (3 Bft)
24.08.2015 07:15 16,8 C 80 % 1004,2 hPa 0,0 l/m 4,8 km/h (1 Bft) SO 140 0 min 18 W/m 13,3 C 16,8 C 12,9 km/h (3 Bft)
24.08.2015 07:18 16,8 C 80 % 1004,1 hPa 0,0 l/m 6,7 km/h (2 Bft) O-NO 67 0 min 19 W/m 13,3 C 16,7 C 19,3 km/h (3 Bft)
24.08.2015 07:21 16,8 C 79 % 1004,1 hPa 0,0 l/m 6,5 km/h (2 Bft) O 88 0 min 23 W/m 13,1 C 16,8 C 12,9 km/h (3 Bft)
24.08.2015 07:24 16,7 C 79 % 1004,0 hPa 0,0 l/m 5,7 km/h (2 Bft) O-NO 57 0 min 25 W/m 13,0 C 16,7 C 12,9 km/h (3 Bft)
24.08.2015 07:27 16,7 C 79 % 1004,0 hPa 0,0 l/m 6,3 km/h (2 Bft) O-SO 112 0 min 26 W/m 13,0 C 16,7 C 16,1 km/h (3 Bft)
24.08.2015 07:30 16,7 C 80 % 1004,0 hPa 0,0 l/m 3,6 km/h (1 Bft) O 80 0 min 30 W/m 13,2 C 16,7 C 8,0 km/h (2 Bft)
24.08.2015 07:33 16,7 C 79 % 1004,0 hPa 0,0 l/m 4,9 km/h (1 Bft) S-SO 160 0 min 30 W/m 13,0 C 16,7 C 12,9 km/h (3 Bft)
24.08.2015 07:36 16,7 C 80 % 1004,0 hPa 0,0 l/m 4,6 km/h (1 Bft) O-NO 62 0 min 30 W/m 13,2 C 16,7 C 12,9 km/h (3 Bft)
24.08.2015 07:39 16,7 C 80 % 1004,0 hPa 0,0 l/m 4,2 km/h (1 Bft) O-SO 115 0 min 30 W/m 13,2 C 16,7 C 17,7 km/h (3 Bft)
24.08.2015 07:42 16,6 C 80 % 1003,9 hPa 0,0 l/m 4,3 km/h (1 Bft) O-SO 118 0 min 30 W/m 13,1 C 16,6 C 11,3 km/h (2 Bft)
24.08.2015 07:45 16,7 C 80 % 1003,9 hPa 0,0 l/m 3,1 km/h (1 Bft) O 86 0 min 30 W/m 13,2 C 16,7 C 9,7 km/h (2 Bft)
24.08.2015 07:48 16,7 C 80 % 1003,9 hPa 0,0 l/m 2,9 km/h (1 Bft) N-NO 31 0 min 32 W/m 13,2 C 16,7 C 8,0 km/h (2 Bft)
24.08.2015 07:51 16,6 C 80 % 1003,9 hPa 0,0 l/m 4,9 km/h (1 Bft) NO 51 0 min 33 W/m 13,1 C 16,6 C 14,5 km/h (3 Bft)
24.08.2015 07:54 16,7 C 80 % 1003,9 hPa 0,0 l/m 5,8 km/h (2 Bft) O-NO 57 0 min 33 W/m 13,2 C 16,7 C 12,9 km/h (3 Bft)
24.08.2015 07:57 16,7 C 80 % 1003,9 hPa 0,0 l/m 7,0 km/h (2 Bft) O-NO 78 0 min 35 W/m 13,2 C 16,4 C 19,3 km/h (3 Bft)
24.08.2015 08:00 16,7 C 79 % 1003,8 hPa 0,0 l/m 4,2 km/h (1 Bft) SO 136 0 min 37 W/m 13,0 C 16,7 C 12,9 km/h (3 Bft)
24.08.2015 08:03 16,8 C 79 % 1003,9 hPa 0,0 l/m 8,0 km/h (2 Bft) O 101 0 min 40 W/m 13,1 C 16,0 C 17,7 km/h (3 Bft)
24.08.2015 08:06 16,8 C 79 % 1003,8 hPa 0,0 l/m 5,1 km/h (1 Bft) W-SW 244 0 min 44 W/m 13,1 C 16,8 C 20,9 km/h (4 Bft)
24.08.2015 08:09 16,8 C 79 % 1003,8 hPa 0,0 l/m 4,6 km/h (1 Bft) O-SO 121 0 min 47 W/m 13,1 C 16,8 C 11,3 km/h (2 Bft)
24.08.2015 08:12 16,8 C 80 % 1003,8 hPa 0,0 l/m 6,3 km/h (2 Bft) O 92 0 min 51 W/m 13,3 C 16,8 C 17,7 km/h (3 Bft)
24.08.2015 08:15 16,8 C 79 % 1003,7 hPa 0,0 l/m 7,2 km/h (2 Bft) N-NO 31 0 min 56 W/m 13,1 C 16,4 C 19,3 km/h (3 Bft)
24.08.2015 08:18 16,9 C 79 % 1003,8 hPa 0,0 l/m 5,6 km/h (2 Bft) O-SO 120 0 min 62 W/m 13,2 C 16,9 C 17,7 km/h (3 Bft)
24.08.2015 08:21 16,9 C 79 % 1003,8 hPa 0,0 l/m 7,4 km/h (2 Bft) N-NW 341 0 min 67 W/m 13,2 C 16,4 C 16,1 km/h (3 Bft)
24.08.2015 08:24 17,0 C 79 % 1003,8 hPa 0,0 l/m 7,4 km/h (2 Bft) O-SO 111 0 min 72 W/m 13,3 C 16,5 C 14,5 km/h (3 Bft)
24.08.2015 08:27 17,1 C 79 % 1003,9 hPa 0,0 l/m 6,5 km/h (2 Bft) O 85 0 min 76 W/m 13,4 C 17,1 C 16,1 km/h (3 Bft)
24.08.2015 08:30 17,1 C 79 % 1003,9 hPa 0,0 l/m 7,5 km/h (2 Bft) O-SO 103 0 min 83 W/m 13,4 C 16,5 C 19,3 km/h (3 Bft)
24.08.2015 08:33 17,1 C 79 % 1003,8 hPa 0,0 l/m 5,4 km/h (2 Bft) O-NO 58 0 min 88 W/m 13,4 C 17,1 C 14,5 km/h (3 Bft)
24.08.2015 08:36 17,1 C 79 % 1003,8 hPa 0,0 l/m 6,2 km/h (2 Bft) O-NO 76 0 min 90 W/m 13,4 C 17,1 C 16,1 km/h (3 Bft)
24.08.2015 08:39 17,2 C 79 % 1003,7 hPa 0,0 l/m 6,2 km/h (2 Bft) S-SO 149 0 min 90 W/m 13,5 C 17,2 C 16,1 km/h (3 Bft)
24.08.2015 08:42 17,2 C 79 % 1003,8 hPa 0,0 l/m 7,5 km/h (2 Bft) N 350 0 min 88 W/m 13,5 C 16,7 C 20,9 km/h (4 Bft)
24.08.2015 08:45 17,2 C 80 % 1003,7 hPa 0,0 l/m 4,1 km/h (1 Bft) NO 55 0 min 86 W/m 13,7 C 17,2 C 19,3 km/h (3 Bft)
24.08.2015 08:48 17,2 C 80 % 1003,7 hPa 0,0 l/m 5,5 km/h (2 Bft) O-NO 69 0 min 83 W/m 13,7 C 17,2 C 16,1 km/h (3 Bft)
24.08.2015 08:51 17,2 C 79 % 1003,6 hPa 0,0 l/m 8,1 km/h (2 Bft) SW 223 0 min 83 W/m 13,5 C 16,4 C 19,3 km/h (3 Bft)
24.08.2015 08:54 17,3 C 78 % 1003,7 hPa 0,0 l/m 3,8 km/h (1 Bft) N-NO 13 0 min 79 W/m 13,4 C 17,3 C 9,7 km/h (2 Bft)
24.08.2015 08:57 17,2 C 79 % 1003,6 hPa 0,0 l/m 5,6 km/h (2 Bft) N-NW 330 0 min 74 W/m 13,5 C 17,2 C 12,9 km/h (3 Bft)
24.08.2015 09:00 17,2 C 79 % 1003,6 hPa 0,0 l/m 5,9 km/h (2 Bft) SO 143 0 min 70 W/m 13,5 C 17,2 C 16,1 km/h (3 Bft)
24.08.2015 09:03 17,2 C 79 % 1003,6 hPa 0,0 l/m 5,9 km/h (2 Bft) O-SO 107 0 min 62 W/m 13,5 C 17,2 C 14,5 km/h (3 Bft)
24.08.2015 09:06 17,2 C 79 % 1003,6 hPa 0,0 l/m 5,5 km/h (2 Bft) O 88 0 min 54 W/m 13,5 C 17,2 C 17,7 km/h (3 Bft)
24.08.2015 09:09 17,2 C 80 % 1003,6 hPa 0,0 l/m 4,7 km/h (1 Bft) NO 51 0 min 53 W/m 13,7 C 17,2 C 14,5 km/h (3 Bft)
24.08.2015 09:12 17,1 C 79 % 1003,5 hPa 0,0 l/m 7,4 km/h (2 Bft) NO 37 0 min 56 W/m 13,4 C 16,6 C 19,3 km/h (3 Bft)
24.08.2015 09:15 17,1 C 79 % 1003,5 hPa 0,0 l/m 7,1 km/h (2 Bft) S 183 0 min 60 W/m 13,4 C 16,7 C 14,5 km/h (3 Bft)
24.08.2015 09:18 17,1 C 79 % 1003,5 hPa 0,0 l/m 5,4 km/h (2 Bft) S 190 0 min 65 W/m 13,4 C 17,1 C 17,7 km/h (3 Bft)
24.08.2015 09:21 17,1 C 79 % 1003,5 hPa 0,0 l/m 6,5 km/h (2 Bft) O 94 0 min 70 W/m 13,4 C 17,1 C 19,3 km/h (3 Bft)
24.08.2015 09:24 17,1 C 79 % 1003,4 hPa 0,0 l/m 4,6 km/h (1 Bft) SO 134 0 min 77 W/m 13,4 C 17,1 C 12,9 km/h (3 Bft)
24.08.2015 09:27 17,1 C 78 % 1003,4 hPa 0,0 l/m 6,0 km/h (2 Bft) O-NO 58 0 min 88 W/m 13,2 C 17,1 C 14,5 km/h (3 Bft)
24.08.2015 09:30 17,2 C 79 % 1003,4 hPa 0,0 l/m 8,5 km/h (2 Bft) S-SW 200 0 min 95 W/m 13,5 C 16,2 C 27,4 km/h (5 Bft)
24.08.2015 09:33 17,2 C 78 % 1003,3 hPa 0,0 l/m 7,9 km/h (2 Bft) N 5 0 min 95 W/m 13,3 C 16,5 C 19,3 km/h (3 Bft)
24.08.2015 09:36 17,2 C 78 % 1003,4 hPa 0,0 l/m 6,0 km/h (2 Bft) NW 315 0 min 88 W/m 13,3 C 17,2 C 20,9 km/h (4 Bft)
24.08.2015 09:39 17,2 C 78 % 1003,5 hPa 0,0 l/m 8,6 km/h (2 Bft) SO 128 0 min 84 W/m 13,3 C 16,1 C 16,1 km/h (3 Bft)
24.08.2015 09:42 17,2 C 78 % 1003,5 hPa 0,0 l/m 4,4 km/h (1 Bft) O-NO 78 0 min 84 W/m 13,3 C 17,2 C 11,3 km/h (2 Bft)
24.08.2015 09:45 17,2 C 79 % 1003,4 hPa 0,0 l/m 6,0 km/h (2 Bft) S-SO 150 0 min 86 W/m 13,5 C 17,2 C 14,5 km/h (3 Bft)
24.08.2015 09:48 17,2 C 79 % 1003,5 hPa 0,0 l/m 6,2 km/h (2 Bft) O-NO 61 0 min 86 W/m 13,5 C 17,2 C 14,5 km/h (3 Bft)
24.08.2015 09:51 17,2 C 79 % 1003,5 hPa 0,0 l/m 4,4 km/h (1 Bft) O 96 0 min 84 W/m 13,5 C 17,2 C 12,9 km/h (3 Bft)
24.08.2015 09:54 17,2 C 80 % 1003,4 hPa 0,0 l/m 6,1 km/h (2 Bft) O 98 0 min 83 W/m 13,7 C 17,2 C 16,1 km/h (3 Bft)
24.08.2015 09:57 17,2 C 79 % 1003,4 hPa 0,0 l/m 4,5 km/h (1 Bft) O 84 0 min 86 W/m 13,5 C 17,2 C 16,1 km/h (3 Bft)
24.08.2015 10:00 17,3 C 80 % 1003,4 hPa 0,0 l/m 5,2 km/h (1 Bft) NO 49 0 min 95 W/m 13,8 C 17,3 C 14,5 km/h (3 Bft)
24.08.2015 10:03 17,3 C 78 % 1003,3 hPa 0,0 l/m 10,2 km/h (2 Bft) O 86 0 min 120 W/m 13,4 C 15,6 C 19,3 km/h (3 Bft)
24.08.2015 10:06 17,3 C 78 % 1003,3 hPa 0,0 l/m 8,8 km/h (2 Bft) O 85 0 min 134 W/m 13,4 C 16,2 C 19,3 km/h (3 Bft)
24.08.2015 10:09 17,4 C 78 % 1003,3 hPa 0,0 l/m 8,9 km/h (2 Bft) O-SO 117 0 min 139 W/m 13,5 C 16,2 C 24,1 km/h (4 Bft)
24.08.2015 10:12 17,4 C 78 % 1003,3 hPa 0,0 l/m 7,2 km/h (2 Bft) O-SO 107 0 min 141 W/m 13,5 C 17,0 C 16,1 km/h (3 Bft)
24.08.2015 10:15 17,4 C 78 % 1003,3 hPa 0,0 l/m 6,0 km/h (2 Bft) SO 124 0 min 137 W/m 13,5 C 17,4 C 16,1 km/h (3 Bft)
24.08.2015 10:18 17,5 C 77 % 1003,3 hPa 0,0 l/m 7,6 km/h (2 Bft) O-SO 116 0 min 139 W/m 13,4 C 16,9 C 20,9 km/h (4 Bft)
24.08.2015 10:21 17,5 C 77 % 1003,3 hPa 0,0 l/m 5,8 km/h (2 Bft) SO 138 0 min 139 W/m 13,4 C 17,5 C 14,5 km/h (3 Bft)
24.08.2015 10:24 17,5 C 77 % 1003,2 hPa 0,0 l/m 5,3 km/h (1 Bft) S-SO 161 0 min 134 W/m 13,4 C 17,5 C 11,3 km/h (2 Bft)
24.08.2015 10:27 17,5 C 78 % 1003,2 hPa 0,0 l/m 6,4 km/h (2 Bft) SO 129 0 min 128 W/m 13,6 C 17,5 C 16,1 km/h (3 Bft)
24.08.2015 10:30 17,5 C 77 % 1003,3 hPa 0,0 l/m 8,1 km/h (2 Bft) O-NO 67 0 min 123 W/m 13,4 C 16,7 C 17,7 km/h (3 Bft)
24.08.2015 10:33 17,5 C 77 % 1003,2 hPa 0,0 l/m 7,6 km/h (2 Bft) S-SO 148 0 min 118 W/m 13,4 C 16,9 C 14,5 km/h (3 Bft)
24.08.2015 10:36 17,5 C 78 % 1003,2 hPa 0,0 l/m 5,9 km/h (2 Bft) S-SW 198 0 min 114 W/m 13,6 C 17,5 C 16,1 km/h (3 Bft)
24.08.2015 10:39 17,5 C 78 % 1003,3 hPa 0,0 l/m 5,5 km/h (2 Bft) O-SO 122 0 min 114 W/m 13,6 C 17,5 C 12,9 km/h (3 Bft)
24.08.2015 10:42 17,4 C 78 % 1003,2 hPa 0,0 l/m 5,7 km/h (2 Bft) S 169 0 min 118 W/m 13,5 C 17,4 C 14,5 km/h (3 Bft)
24.08.2015 10:45 17,4 C 78 % 1003,3 hPa 0,0 l/m 2,9 km/h (1 Bft) S-SW 200 0 min 116 W/m 13,5 C 17,4 C 6,4 km/h (2 Bft)
24.08.2015 10:48 17,5 C 79 % 1003,3 hPa 0,0 l/m 4,0 km/h (1 Bft) S-SO 165 0 min 113 W/m 13,8 C 17,5 C 9,7 km/h (2 Bft)
24.08.2015 10:51 17,6 C 78 % 1003,2 hPa 0,0 l/m 5,2 km/h (1 Bft) S-SW 194 0 min 111 W/m 13,7 C 17,6 C 12,9 km/h (3 Bft)
24.08.2015 10:54 17,5 C 79 % 1003,3 hPa 0,0 l/m 3,1 km/h (1 Bft) S 172 0 min 116 W/m 13,8 C 17,5 C 9,7 km/h (2 Bft)
24.08.2015 10:57 17,6 C 79 % 1003,2 hPa 0,0 l/m 4,2 km/h (1 Bft) O-SO 113 0 min 132 W/m 13,9 C 17,6 C 16,1 km/h (3 Bft)
24.08.2015 11:00 17,6 C 79 % 1003,1 hPa 0,0 l/m 3,4 km/h (1 Bft) S-SW 205 0 min 171 W/m 13,9 C 17,6 C 8,0 km/h (2 Bft)
24.08.2015 11:03 17,7 C 80 % 1003,2 hPa 0,0 l/m 4,3 km/h (1 Bft) S 175 0 min 218 W/m 14,2 C 17,7 C 9,7 km/h (2 Bft)
24.08.2015 11:06 17,9 C 78 % 1003,3 hPa 0,0 l/m 6,8 km/h (2 Bft) SW 217 0 min 258 W/m 14,0 C 17,7 C 19,3 km/h (3 Bft)
24.08.2015 11:09 17,9 C 78 % 1003,4 hPa 0,0 l/m 6,9 km/h (2 Bft) SO 134 0 min 257 W/m 14,0 C 17,7 C 14,5 km/h (3 Bft)
24.08.2015 11:12 18,1 C 78 % 1003,4 hPa 0,0 l/m 9,1 km/h (2 Bft) S-SO 157 0 min 230 W/m 14,2 C 16,9 C 17,7 km/h (3 Bft)
24.08.2015 11:15 18,1 C 78 % 1003,4 hPa 0,0 l/m 4,9 km/h (1 Bft) O-SO 117 0 min 225 W/m 14,2 C 18,1 C 11,3 km/h (2 Bft)
24.08.2015 11:18 18,2 C 79 % 1003,4 hPa 0,0 l/m 5,6 km/h (2 Bft) SO 128 0 min 265 W/m 14,5 C 18,2 C 12,9 km/h (3 Bft)
24.08.2015 11:21 18,2 C 80 % 1003,4 hPa 0,0 l/m 4,2 km/h (1 Bft) SW 219 0 min 285 W/m 14,7 C 18,2 C 9,7 km/h (2 Bft)
24.08.2015 11:24 18,4 C 79 % 1003,4 hPa 0,0 l/m 3,9 km/h (1 Bft) O 96 0 min 339 W/m 14,7 C 18,4 C 9,7 km/h (2 Bft)
24.08.2015 11:27 18,7 C 78 % 1003,4 hPa 0,0 l/m 4,8 km/h (1 Bft) O-SO 103 0 min 308 W/m 14,8 C 18,7 C 9,7 km/h (2 Bft)
24.08.2015 11:30 18,8 C 77 % 1003,3 hPa 0,0 l/m 4,1 km/h (1 Bft) S-SO 161 0 min 315 W/m 14,7 C 18,8 C 8,0 km/h (2 Bft)
24.08.2015 11:33 19,1 C 78 % 1003,3 hPa 0,0 l/m 4,0 km/h (1 Bft) O-SO 109 3 min 399 W/m 15,2 C 19,1 C 11,3 km/h (2 Bft)
24.08.2015 11:36 19,1 C 75 % 1003,1 hPa 0,0 l/m 9,6 km/h (2 Bft) S 184 3 min 381 W/m 14,6 C 17,8 C 19,3 km/h (3 Bft)
24.08.2015 11:39 19,2 C 75 % 1003,2 hPa 0,0 l/m 5,6 km/h (2 Bft) O-SO 120 0 min 248 W/m 14,7 C 19,2 C 12,9 km/h (3 Bft)
24.08.2015 11:42 19,2 C 75 % 1003,1 hPa 0,0 l/m 6,9 km/h (2 Bft) O 80 0 min 243 W/m 14,7 C 19,0 C 11,3 km/h (2 Bft)
24.08.2015 11:45 19,1 C 74 % 1003,0 hPa 0,0 l/m 6,1 km/h (2 Bft) SO 136 0 min 311 W/m 14,4 C 19,1 C 14,5 km/h (3 Bft)
24.08.2015 11:48 19,2 C 75 % 1002,9 hPa 0,0 l/m 6,5 km/h (2 Bft) S-SW 202 3 min 824 W/m 14,7 C 19,2 C 14,5 km/h (3 Bft)
24.08.2015 11:51 19,9 C 74 % 1002,8 hPa 0,0 l/m 5,8 km/h (2 Bft) W 281 3 min 765 W/m 15,1 C 19,9 C 14,5 km/h (3 Bft)
24.08.2015 11:54 20,2 C 71 % 1002,9 hPa 0,0 l/m 6,7 km/h (2 Bft) O-SO 113 0 min 287 W/m 14,8 C 20,1 C 11,3 km/h (2 Bft)
24.08.2015 11:57 20,0 C 72 % 1002,8 hPa 0,0 l/m 6,2 km/h (2 Bft) S 172 0 min 257 W/m 14,8 C 20,0 C 12,9 km/h (3 Bft)
24.08.2015 12:00 19,7 C 73 % 1002,8 hPa 0,0 l/m 7,6 km/h (2 Bft) S 173 0 min 225 W/m 14,7 C 19,2 C 14,5 km/h (3 Bft)
24.08.2015 12:03 19,5 C 73 % 1002,7 hPa 0,0 l/m 7,6 km/h (2 Bft) S-SO 160 0 min 258 W/m 14,5 C 19,0 C 14,5 km/h (3 Bft)
24.08.2015 12:06 19,4 C 75 % 1002,7 hPa 0,0 l/m 7,0 km/h (2 Bft) SO 136 0 min 269 W/m 14,8 C 19,1 C 17,7 km/h (3 Bft)
24.08.2015 12:09 19,4 C 74 % 1002,7 hPa 0,0 l/m 7,7 km/h (2 Bft) S 179 0 min 271 W/m 14,6 C 18,8 C 16,1 km/h (3 Bft)
24.08.2015 12:12 19,4 C 75 % 1002,7 hPa 0,0 l/m 3,8 km/h (1 Bft) S-SO 166 0 min 246 W/m 14,8 C 19,4 C 9,7 km/h (2 Bft)
24.08.2015 12:15 19,5 C 75 % 1002,6 hPa 0,0 l/m 5,8 km/h (2 Bft) S-SO 150 0 min 301 W/m 14,9 C 19,5 C 11,3 km/h (2 Bft)
24.08.2015 12:18 19,6 C 76 % 1002,6 hPa 0,0 l/m 5,0 km/h (1 Bft) S-SO 161 0 min 200 W/m 15,2 C 19,6 C 9,7 km/h (2 Bft)
24.08.2015 12:21 19,7 C 75 % 1002,6 hPa 0,0 l/m 3,6 km/h (1 Bft) S-SO 163 0 min 230 W/m 15,1 C 19,7 C 6,4 km/h (2 Bft)
24.08.2015 12:24 19,7 C 75 % 1002,6 hPa 0,0 l/m 6,9 km/h (2 Bft) NO 42 0 min 265 W/m 15,1 C 19,5 C 14,5 km/h (3 Bft)
24.08.2015 12:27 19,6 C 77 % 1002,6 hPa 0,0 l/m 5,4 km/h (2 Bft) O 83 0 min 163 W/m 15,5 C 19,6 C 12,9 km/h (3 Bft)
24.08.2015 12:30 19,4 C 75 % 1002,7 hPa 0,0 l/m 5,3 km/h (1 Bft) SO 126 0 min 114 W/m 14,8 C 19,4 C 12,9 km/h (3 Bft)
24.08.2015 12:33 19,3 C 77 % 1002,7 hPa 0,0 l/m 7,0 km/h (2 Bft) SO 140 0 min 114 W/m 15,2 C 19,0 C 12,9 km/h (3 Bft)
24.08.2015 12:36 19,2 C 78 % 1002,7 hPa 0,0 l/m 9,4 km/h (2 Bft) O-SO 121 0 min 70 W/m 15,3 C 18,0 C 17,7 km/h (3 Bft)
24.08.2015 12:39 19,1 C 80 % 1002,7 hPa 0,0 l/m 6,8 km/h (2 Bft) S-SO 150 0 min 76 W/m 15,6 C 18,9 C 17,7 km/h (3 Bft)
24.08.2015 12:42 18,9 C 79 % 1002,7 hPa 0,0 l/m 6,9 km/h (2 Bft) S-SO 152 0 min 79 W/m 15,2 C 18,7 C 20,9 km/h (4 Bft)
24.08.2015 12:45 18,8 C 79 % 1002,8 hPa 0,0 l/m 9,6 km/h (2 Bft) O-SO 119 0 min 142 W/m 15,1 C 17,5 C 19,3 km/h (3 Bft)
24.08.2015 12:48 18,7 C 80 % 1002,8 hPa 0,0 l/m 8,7 km/h (2 Bft) SW 227 0 min 216 W/m 15,2 C 17,7 C 20,9 km/h (4 Bft)
24.08.2015 12:51 18,8 C 80 % 1002,7 hPa 0,0 l/m 8,7 km/h (2 Bft) S 171 0 min 220 W/m 15,3 C 17,8 C 17,7 km/h (3 Bft)
24.08.2015 12:54 18,9 C 80 % 1002,8 hPa 0,0 l/m 7,7 km/h (2 Bft) S-SO 156 0 min 190 W/m 15,4 C 18,3 C 14,5 km/h (3 Bft)
24.08.2015 12:57 19,0 C 81 % 1002,8 hPa 0,0 l/m 6,6 km/h (2 Bft) S-SO 157 0 min 149 W/m 15,7 C 18,9 C 12,9 km/h (3 Bft)
24.08.2015 13:00 19,1 C 80 % 1002,8 hPa 0,0 l/m 8,4 km/h (2 Bft) S 171 0 min 176 W/m 15,6 C 18,2 C 16,1 km/h (3 Bft)
24.08.2015 13:03 19,1 C 81 % 1002,8 hPa 0,0 l/m 7,8 km/h (2 Bft) S 191 0 min 97 W/m 15,8 C 18,5 C 20,9 km/h (4 Bft)
24.08.2015 13:06 18,9 C 80 % 1002,9 hPa 0,0 l/m 7,4 km/h (2 Bft) S-SO 161 0 min 84 W/m 15,4 C 18,5 C 17,7 km/h (3 Bft)
24.08.2015 13:09 18,8 C 81 % 1002,9 hPa 0,0 l/m 11,3 km/h (2 Bft) SO 129 0 min 102 W/m 15,5 C 16,9 C 20,9 km/h (4 Bft)
24.08.2015 13:12 18,7 C 82 % 1002,9 hPa 0,0 l/m 9,3 km/h (2 Bft) SO 140 0 min 81 W/m 15,6 C 17,5 C 17,7 km/h (3 Bft)
24.08.2015 13:15 18,6 C 83 % 1002,9 hPa 0,0 l/m 9,3 km/h (2 Bft) S-SW 192 0 min 100 W/m 15,7 C 17,4 C 17,7 km/h (3 Bft)
24.08.2015 13:18 18,5 C 84 % 1002,9 hPa 0,0 l/m 8,7 km/h (2 Bft) SO 132 0 min 76 W/m 15,7 C 17,5 C 20,9 km/h (4 Bft)
24.08.2015 13:21 18,4 C 84 % 1002,9 hPa 0,0 l/m 9,2 km/h (2 Bft) S 174 0 min 70 W/m 15,6 C 17,2 C 22,5 km/h (4 Bft)
24.08.2015 13:24 18,4 C 84 % 1002,8 hPa 0,0 l/m 10,3 km/h (2 Bft) S-SO 153 0 min 65 W/m 15,6 C 16,8 C 17,7 km/h (3 Bft)
24.08.2015 13:27 18,3 C 84 % 1002,8 hPa 0,0 l/m 10,3 km/h (2 Bft) S 173 0 min 40 W/m 15,5 C 16,7 C 19,3 km/h (3 Bft)
24.08.2015 13:30 18,3 C 85 % 1002,8 hPa 0,0 l/m 11,4 km/h (2 Bft) SO 141 0 min 65 W/m 15,7 C 16,3 C 20,9 km/h (4 Bft)
24.08.2015 13:33 18,2 C 85 % 1002,8 hPa 0,0 l/m 9,5 km/h (2 Bft) S-SW 203 0 min 56 W/m 15,6 C 16,8 C 19,3 km/h (3 Bft)
24.08.2015 13:36 18,2 C 85 % 1002,8 hPa 0,0 l/m 9,0 km/h (2 Bft) S-SO 157 0 min 81 W/m 15,6 C 17,0 C 17,7 km/h (3 Bft)
24.08.2015 13:39 18,3 C 85 % 1002,7 hPa 0,0 l/m 8,1 km/h (2 Bft) S 181 0 min 325 W/m 15,7 C 17,5 C 14,5 km/h (3 Bft)
24.08.2015 13:42 18,6 C 85 % 1002,8 hPa 0,0 l/m 8,1 km/h (2 Bft) S 187 0 min 378 W/m 16,0 C 17,8 C 16,1 km/h (3 Bft)
24.08.2015 13:45 19,1 C 83 % 1002,7 hPa 0,0 l/m 10,3 km/h (2 Bft) S 180 3 min 492 W/m 16,1 C 17,5 C 17,7 km/h (3 Bft)
24.08.2015 13:48 19,6 C 81 % 1002,7 hPa 0,0 l/m 9,6 km/h (2 Bft) SO 146 0 min 197 W/m 16,2 C 18,3 C 16,1 km/h (3 Bft)
24.08.2015 13:51 19,4 C 81 % 1002,8 hPa 0,0 l/m 9,7 km/h (2 Bft) O-SO 117 0 min 132 W/m 16,1 C 18,1 C 19,3 km/h (3 Bft)
24.08.2015 13:54 19,2 C 82 % 1002,7 hPa 0,0 l/m 8,0 km/h (2 Bft) SO 136 0 min 172 W/m 16,0 C 18,5 C 16,1 km/h (3 Bft)
24.08.2015 13:57 19,3 C 83 % 1002,7 hPa 0,0 l/m 5,8 km/h (2 Bft) S-SO 155 0 min 376 W/m 16,3 C 19,3 C 12,9 km/h (3 Bft)
24.08.2015 14:00 19,4 C 81 % 1002,7 hPa 0,0 l/m 7,7 km/h (2 Bft) O-SO 121 0 min 373 W/m 16,1 C 18,8 C 16,1 km/h (3 Bft)
24.08.2015 14:03 19,7 C 81 % 1002,7 hPa 0,0 l/m 9,0 km/h (2 Bft) S-SO 161 0 min 369 W/m 16,3 C 18,7 C 17,7 km/h (3 Bft)
24.08.2015 14:06 19,8 C 81 % 1002,6 hPa 0,0 l/m 9,2 km/h (2 Bft) S 186 0 min 320 W/m 16,4 C 18,7 C 17,7 km/h (3 Bft)
24.08.2015 14:09 20,0 C 81 % 1002,6 hPa 0,0 l/m 4,1 km/h (1 Bft) SO 131 0 min 156 W/m 16,6 C 20,0 C 9,7 km/h (2 Bft)
24.08.2015 14:12 19,9 C 80 % 1002,6 hPa 0,0 l/m 5,3 km/h (1 Bft) S-SO 150 0 min 146 W/m 16,3 C 19,9 C 12,9 km/h (3 Bft)
24.08.2015 14:15 19,7 C 80 % 1002,6 hPa 0,0 l/m 7,7 km/h (2 Bft) S-SO 159 0 min 128 W/m 16,1 C 19,2 C 14,5 km/h (3 Bft)
24.08.2015 14:18 19,6 C 82 % 1002,7 hPa 0,0 l/m 6,6 km/h (2 Bft) S-SO 151 0 min 172 W/m 16,4 C 19,5 C 12,9 km/h (3 Bft)
24.08.2015 14:21 19,6 C 81 % 1002,7 hPa 0,0 l/m 8,2 km/h (2 Bft) S 182 0 min 158 W/m 16,2 C 18,9 C 14,5 km/h (3 Bft)
24.08.2015 14:24 19,6 C 80 % 1002,7 hPa 0,0 l/m 7,8 km/h (2 Bft) S-SO 157 0 min 218 W/m 16,1 C 19,0 C 16,1 km/h (3 Bft)
24.08.2015 14:27 19,7 C 81 % 1002,6 hPa 0,0 l/m 8,7 km/h (2 Bft) S-SO 154 3 min 394 W/m 16,3 C 18,8 C 14,5 km/h (3 Bft)
24.08.2015 14:30 20,2 C 78 % 1002,6 hPa 0,0 l/m 8,6 km/h (2 Bft) S-SO 150 3 min 381 W/m 16,2 C 19,3 C 17,7 km/h (3 Bft)
24.08.2015 14:33 20,8 C 76 % 1002,5 hPa 0,0 l/m 8,7 km/h (2 Bft) S-SW 194 3 min 606 W/m 16,4 C 19,9 C 14,5 km/h (3 Bft)
24.08.2015 14:36 21,1 C 74 % 1002,6 hPa 0,0 l/m 9,3 km/h (2 Bft) S-SW 192 3 min 642 W/m 16,3 C 20,1 C 17,7 km/h (3 Bft)
24.08.2015 14:39 21,6 C 74 % 1002,4 hPa 0,0 l/m 6,1 km/h (2 Bft) S-SO 164 3 min 657 W/m 16,8 C 21,6 C 11,3 km/h (2 Bft)
24.08.2015 14:42 21,5 C 72 % 1002,4 hPa 0,0 l/m 7,1 km/h (2 Bft) S 184 0 min 204 W/m 16,2 C 21,2 C 12,9 km/h (3 Bft)
24.08.2015 14:45 21,1 C 73 % 1002,5 hPa 0,0 l/m 7,9 km/h (2 Bft) S 177 0 min 272 W/m 16,1 C 20,5 C 14,5 km/h (3 Bft)
24.08.2015 14:48 20,9 C 74 % 1002,6 hPa 0,0 l/m 6,7 km/h (2 Bft) S-SW 200 0 min 232 W/m 16,1 C 20,8 C 11,3 km/h (2 Bft)
24.08.2015 14:51 20,9 C 75 % 1002,5 hPa 0,0 l/m 5,0 km/h (1 Bft) S-SO 159 3 min 724 W/m 16,3 C 20,9 C 11,3 km/h (2 Bft)
24.08.2015 14:54 21,2 C 75 % 1002,5 hPa 0,0 l/m 5,5 km/h (2 Bft) S 171 0 min 237 W/m 16,6 C 21,2 C 12,9 km/h (3 Bft)
24.08.2015 14:57 21,2 C 74 % 1002,5 hPa 0,0 l/m 8,5 km/h (2 Bft) SO 134 0 min 255 W/m 16,4 C 20,4 C 17,7 km/h (3 Bft)
24.08.2015 15:00 20,9 C 74 % 1002,4 hPa 0,0 l/m 9,4 km/h (2 Bft) S-SO 157 0 min 236 W/m 16,1 C 19,8 C 16,1 km/h (3 Bft)
24.08.2015 15:03 20,8 C 74 % 1002,3 hPa 0,0 l/m 10,3 km/h (2 Bft) S 177 0 min 207 W/m 16,0 C 19,4 C 22,5 km/h (4 Bft)
24.08.2015 15:06 20,8 C 75 % 1002,4 hPa 0,0 l/m 7,2 km/h (2 Bft) S-SO 163 0 min 243 W/m 16,2 C 20,5 C 16,1 km/h (3 Bft)
24.08.2015 15:09 20,9 C 76 % 1002,3 hPa 0,0 l/m 5,4 km/h (2 Bft) S 177 3 min 671 W/m 16,5 C 20,9 C 14,5 km/h (3 Bft)
24.08.2015 15:12 21,6 C 73 % 1002,4 hPa 0,0 l/m 9,7 km/h (2 Bft) S 184 0 min 272 W/m 16,5 C 20,5 C 19,3 km/h (3 Bft)
24.08.2015 15:15 21,5 C 72 % 1002,4 hPa 0,0 l/m 8,6 km/h (2 Bft) S-SO 147 0 min 207 W/m 16,2 C 20,7 C 14,5 km/h (3 Bft)
24.08.2015 15:18 21,3 C 73 % 1002,5 hPa 0,0 l/m 6,9 km/h (2 Bft) S 183 0 min 223 W/m 16,3 C 21,1 C 12,9 km/h (3 Bft)
24.08.2015 15:21 21,3 C 74 % 1002,5 hPa 0,0 l/m 8,5 km/h (2 Bft) SO 126 0 min 220 W/m 16,5 C 20,5 C 16,1 km/h (3 Bft)
24.08.2015 15:24 21,3 C 74 % 1002,5 hPa 0,0 l/m 9,0 km/h (2 Bft) S-SO 167 3 min 601 W/m 16,5 C 20,4 C 14,5 km/h (3 Bft)
24.08.2015 15:27 21,6 C 73 % 1002,4 hPa 0,0 l/m 10,2 km/h (2 Bft) S 171 3 min 599 W/m 16,5 C 20,4 C 17,7 km/h (3 Bft)
24.08.2015 15:30 21,7 C 72 % 1002,5 hPa 0,0 l/m 10,0 km/h (2 Bft) S 175 0 min 213 W/m 16,4 C 20,5 C 19,3 km/h (3 Bft)
24.08.2015 15:33 21,6 C 72 % 1002,5 hPa 0,0 l/m 10,2 km/h (2 Bft) S 175 0 min 288 W/m 16,3 C 20,4 C 19,3 km/h (3 Bft)
24.08.2015 15:36 21,6 C 72 % 1002,5 hPa 0,0 l/m 8,9 km/h (2 Bft) SO 131 3 min 371 W/m 16,3 C 20,7 C 14,5 km/h (3 Bft)
24.08.2015 15:39 21,7 C 71 % 1002,4 hPa 0,0 l/m 7,0 km/h (2 Bft) S 172 3 min 475 W/m 16,2 C 21,5 C 14,5 km/h (3 Bft)
24.08.2015 15:42 22,1 C 73 % 1002,4 hPa 0,0 l/m 5,6 km/h (2 Bft) S 169 0 min 295 W/m 17,0 C 22,1 C 9,7 km/h (2 Bft)
24.08.2015 15:45 22,3 C 73 % 1002,4 hPa 0,0 l/m 5,4 km/h (2 Bft) S-SO 157 0 min 278 W/m 17,2 C 22,3 C 14,5 km/h (3 Bft)
24.08.2015 15:48 22,2 C 71 % 1002,4 hPa 0,0 l/m 9,8 km/h (2 Bft) S-SO 151 0 min 183 W/m 16,7 C 21,1 C 19,3 km/h (3 Bft)
24.08.2015 15:51 22,1 C 71 % 1002,4 hPa 0,0 l/m 7,0 km/h (2 Bft) SO 140 0 min 234 W/m 16,6 C 21,9 C 16,1 km/h (3 Bft)
24.08.2015 15:54 21,8 C 72 % 1002,3 hPa 0,0 l/m 5,9 km/h (2 Bft) SO 140 0 min 304 W/m 16,5 C 21,8 C 16,1 km/h (3 Bft)
24.08.2015 15:57 21,8 C 71 % 1002,3 hPa 0,0 l/m 9,8 km/h (2 Bft) SO 140 0 min 306 W/m 16,3 C 20,7 C 16,1 km/h (3 Bft)
24.08.2015 16:00 22,1 C 71 % 1002,3 hPa 0,0 l/m 6,9 km/h (2 Bft) S-SO 159 3 min 698 W/m 16,6 C 21,9 C 14,5 km/h (3 Bft)
24.08.2015 16:03 22,5 C 71 % 1002,2 hPa 0,0 l/m 8,2 km/h (2 Bft) S-SO 156 3 min 677 W/m 17,0 C 21,9 C 16,1 km/h (3 Bft)
24.08.2015 16:06 22,8 C 69 % 1002,2 hPa 0,0 l/m 6,5 km/h (2 Bft) SO 130 0 min 301 W/m 16,8 C 22,8 C 14,5 km/h (3 Bft)
24.08.2015 16:09 22,8 C 69 % 1002,1 hPa 0,0 l/m 5,3 km/h (1 Bft) S 181 3 min 318 W/m 16,8 C 22,8 C 11,3 km/h (2 Bft)
24.08.2015 16:12 22,9 C 70 % 1002,1 hPa 0,0 l/m 5,1 km/h (1 Bft) S-SW 192 3 min 622 W/m 17,1 C 22,9 C 12,9 km/h (3 Bft)
24.08.2015 16:15 23,2 C 68 % 1002,1 hPa 0,0 l/m 7,5 km/h (2 Bft) S 182 3 min 635 W/m 17,0 C 22,9 C 16,1 km/h (3 Bft)
24.08.2015 16:18 23,3 C 67 % 1002,1 hPa 0,0 l/m 9,0 km/h (2 Bft) SO 124 3 min 564 W/m 16,8 C 22,5 C 14,5 km/h (3 Bft)
24.08.2015 16:21 23,3 C 67 % 1002,1 hPa 0,0 l/m 9,2 km/h (2 Bft) S 171 3 min 563 W/m 16,8 C 22,5 C 20,9 km/h (4 Bft)
24.08.2015 16:24 23,3 C 67 % 1002,1 hPa 0,0 l/m 8,0 km/h (2 Bft) SW 227 3 min 497 W/m 16,8 C 22,8 C 14,5 km/h (3 Bft)
24.08.2015 16:27 23,2 C 67 % 1002,1 hPa 0,0 l/m 9,3 km/h (2 Bft) S 171 3 min 512 W/m 16,7 C 22,4 C 17,7 km/h (3 Bft)
24.08.2015 16:30 23,3 C 68 % 1002,0 hPa 0,0 l/m 7,2 km/h (2 Bft) S-SO 157 3 min 489 W/m 17,1 C 23,1 C 14,5 km/h (3 Bft)
24.08.2015 16:33 23,3 C 67 % 1002,0 hPa 0,0 l/m 8,3 km/h (2 Bft) SO 136 3 min 489 W/m 16,8 C 22,7 C 17,7 km/h (3 Bft)
24.08.2015 16:36 23,4 C 67 % 1002,1 hPa 0,0 l/m 9,3 km/h (2 Bft) S 185 3 min 482 W/m 16,9 C 22,6 C 16,1 km/h (3 Bft)
24.08.2015 16:39 23,3 C 68 % 1001,9 hPa 0,0 l/m 7,5 km/h (2 Bft) S-SW 192 3 min 439 W/m 17,1 C 23,0 C 12,9 km/h (3 Bft)
24.08.2015 16:42 23,2 C 67 % 1001,9 hPa 0,0 l/m 10,6 km/h (2 Bft) O-SO 118 0 min 135 W/m 16,7 C 22,0 C 17,7 km/h (3 Bft)
24.08.2015 16:45 22,9 C 68 % 1001,8 hPa 0,0 l/m 9,2 km/h (2 Bft) S-SW 207 3 min 448 W/m 16,7 C 22,1 C 16,1 km/h (3 Bft)
24.08.2015 16:48 23,1 C 71 % 1001,8 hPa 0,0 l/m 4,1 km/h (1 Bft) SO 142 3 min 418 W/m 17,5 C 23,1 C 12,9 km/h (3 Bft)
24.08.2015 16:51 23,3 C 67 % 1001,7 hPa 0,0 l/m 10,2 km/h (2 Bft) S-SO 148 3 min 438 W/m 16,8 C 22,2 C 17,7 km/h (3 Bft)
24.08.2015 16:54 23,3 C 67 % 1001,7 hPa 0,0 l/m 7,1 km/h (2 Bft) O-SO 102 3 min 406 W/m 16,8 C 23,1 C 16,1 km/h (3 Bft)
24.08.2015 16:57 23,3 C 67 % 1001,7 hPa 0,0 l/m 6,8 km/h (2 Bft) SO 129 3 min 424 W/m 16,8 C 23,2 C 14,5 km/h (3 Bft)
24.08.2015 17:00 23,4 C 69 % 1001,6 hPa 0,0 l/m 5,0 km/h (1 Bft) SO 144 3 min 461 W/m 17,4 C 23,4 C 17,7 km/h (3 Bft)
24.08.2015 17:03 23,4 C 67 % 1001,5 hPa 0,0 l/m 8,4 km/h (2 Bft) S-SO 168 3 min 357 W/m 16,9 C 22,8 C 14,5 km/h (3 Bft)
24.08.2015 17:06 23,3 C 67 % 1001,4 hPa 0,0 l/m 9,3 km/h (2 Bft) SO 125 3 min 287 W/m 16,8 C 22,5 C 19,3 km/h (3 Bft)
24.08.2015 17:09 23,3 C 68 % 1001,4 hPa 0,0 l/m 7,3 km/h (2 Bft) S 186 3 min 399 W/m 17,1 C 23,0 C 11,3 km/h (2 Bft)
24.08.2015 17:12 23,2 C 67 % 1001,4 hPa 0,0 l/m 9,2 km/h (2 Bft) S-SO 147 0 min 188 W/m 16,7 C 22,4 C 17,7 km/h (3 Bft)
24.08.2015 17:15 23,1 C 67 % 1001,5 hPa 0,0 l/m 9,5 km/h (2 Bft) SO 140 0 min 171 W/m 16,6 C 22,2 C 19,3 km/h (3 Bft)
24.08.2015 17:18 23,0 C 68 % 1001,5 hPa 0,0 l/m 6,7 km/h (2 Bft) SO 145 0 min 172 W/m 16,8 C 22,9 C 14,5 km/h (3 Bft)
24.08.2015 17:21 22,9 C 71 % 1001,4 hPa 0,0 l/m 4,5 km/h (1 Bft) O 92 0 min 178 W/m 17,4 C 22,9 C 11,3 km/h (2 Bft)
24.08.2015 17:24 22,7 C 70 % 1001,3 hPa 0,0 l/m 5,7 km/h (2 Bft) O-SO 123 0 min 178 W/m 16,9 C 22,7 C 19,3 km/h (3 Bft)
24.08.2015 17:27 22,8 C 70 % 1001,3 hPa 0,0 l/m 7,6 km/h (2 Bft) O-SO 116 0 min 216 W/m 17,0 C 22,4 C 14,5 km/h (3 Bft)
24.08.2015 17:30 22,8 C 70 % 1001,3 hPa 0,0 l/m 7,2 km/h (2 Bft) O-SO 115 0 min 195 W/m 17,0 C 22,5 C 14,5 km/h (3 Bft)
24.08.2015 17:33 22,8 C 69 % 1001,4 hPa 0,0 l/m 6,6 km/h (2 Bft) O-NO 67 0 min 178 W/m 16,8 C 22,7 C 14,5 km/h (3 Bft)
24.08.2015 17:36 22,9 C 71 % 1001,3 hPa 0,0 l/m 5,4 km/h (2 Bft) S-SO 151 0 min 197 W/m 17,4 C 22,9 C 11,3 km/h (2 Bft)
24.08.2015 17:39 22,8 C 72 % 1001,2 hPa 0,0 l/m 6,3 km/h (2 Bft) S-SO 153 0 min 204 W/m 17,5 C 22,8 C 16,1 km/h (3 Bft)
24.08.2015 17:42 22,8 C 72 % 1001,1 hPa 0,0 l/m 4,6 km/h (1 Bft) O 86 0 min 149 W/m 17,5 C 22,8 C 11,3 km/h (2 Bft)
24.08.2015 17:45 22,7 C 70 % 1001,1 hPa 0,0 l/m 4,5 km/h (1 Bft) SO 129 0 min 107 W/m 16,9 C 22,7 C 11,3 km/h (2 Bft)
24.08.2015 17:48 22,6 C 73 % 1001,0 hPa 0,0 l/m 4,6 km/h (1 Bft) S 173 3 min 278 W/m 17,5 C 22,6 C 14,5 km/h (3 Bft)
24.08.2015 17:51 22,6 C 72 % 1000,9 hPa 0,0 l/m 5,5 km/h (2 Bft) NO 46 0 min 104 W/m 17,3 C 22,6 C 11,3 km/h (2 Bft)
24.08.2015 17:54 22,5 C 72 % 1001,0 hPa 0,0 l/m 5,1 km/h (1 Bft) O-SO 123 0 min 98 W/m 17,2 C 22,5 C 12,9 km/h (3 Bft)
24.08.2015 17:57 22,4 C 73 % 1000,9 hPa 0,0 l/m 4,1 km/h (1 Bft) O 95 0 min 125 W/m 17,3 C 22,4 C 9,7 km/h (2 Bft)
24.08.2015 18:00 22,3 C 74 % 1000,9 hPa 0,0 l/m 4,2 km/h (1 Bft) N-NO 16 0 min 139 W/m 17,4 C 22,3 C 9,7 km/h (2 Bft)
24.08.2015 18:03 22,2 C 75 % 1000,8 hPa 0,0 l/m 4,1 km/h (1 Bft) O-NO 71 0 min 127 W/m 17,5 C 22,2 C 14,5 km/h (3 Bft)
24.08.2015 18:06 22,3 C 75 % 1000,9 hPa 0,0 l/m 4,8 km/h (1 Bft) NO 46 0 min 84 W/m 17,6 C 22,3 C 11,3 km/h (2 Bft)
24.08.2015 18:09 22,3 C 73 % 1000,9 hPa 0,0 l/m 6,7 km/h (2 Bft) O-SO 109 0 min 44 W/m 17,2 C 22,2 C 16,1 km/h (3 Bft)
24.08.2015 18:12 22,3 C 72 % 1000,8 hPa 0,0 l/m 7,6 km/h (2 Bft) O-SO 123 0 min 60 W/m 17,0 C 21,9 C 14,5 km/h (3 Bft)
24.08.2015 18:15 22,3 C 72 % 1000,6 hPa 0,0 l/m 8,0 km/h (2 Bft) N-NO 17 0 min 67 W/m 17,0 C 21,8 C 17,7 km/h (3 Bft)
24.08.2015 18:18 22,3 C 72 % 1000,6 hPa 0,0 l/m 5,8 km/h (2 Bft) S-SO 147 0 min 62 W/m 17,0 C 22,3 C 17,7 km/h (3 Bft)
24.08.2015 18:21 22,3 C 73 % 1000,6 hPa 0,0 l/m 5,3 km/h (1 Bft) S 184 0 min 62 W/m 17,2 C 22,3 C 14,5 km/h (3 Bft)
24.08.2015 18:24 22,3 C 73 % 1000,5 hPa 0,0 l/m 6,4 km/h (2 Bft) O-NO 62 0 min 67 W/m 17,2 C 22,3 C 17,7 km/h (3 Bft)
24.08.2015 18:27 22,3 C 72 % 1000,3 hPa 0,0 l/m 5,9 km/h (2 Bft) O 82 0 min 88 W/m 17,0 C 22,3 C 16,1 km/h (3 Bft)
24.08.2015 18:30 22,3 C 71 % 1000,3 hPa 0,0 l/m 7,4 km/h (2 Bft) W-SW 248 3 min 171 W/m 16,8 C 22,0 C 14,5 km/h (3 Bft)
24.08.2015 18:33 22,6 C 70 % 1000,4 hPa 0,0 l/m 8,9 km/h (2 Bft) NO 53 3 min 325 W/m 16,8 C 21,8 C 25,7 km/h (4 Bft)
24.08.2015 18:36 23,0 C 70 % 1000,3 hPa 0,0 l/m 7,9 km/h (2 Bft) S-SO 152 3 min 325 W/m 17,2 C 22,5 C 16,1 km/h (3 Bft)
24.08.2015 18:39 23,2 C 69 % 1000,3 hPa 0,0 l/m 4,3 km/h (1 Bft) O-NO 72 3 min 229 W/m 17,2 C 23,2 C 11,3 km/h (2 Bft)
24.08.2015 18:42 23,1 C 71 % 1000,2 hPa 0,0 l/m 5,6 km/h (2 Bft) SO 130 0 min 67 W/m 17,5 C 23,1 C 14,5 km/h (3 Bft)
24.08.2015 18:45 22,7 C 72 % 1000,2 hPa 0,0 l/m 5,7 km/h (2 Bft) S-SO 149 0 min 56 W/m 17,4 C 22,7 C 17,7 km/h (3 Bft)
24.08.2015 18:48 22,4 C 73 % 1000,1 hPa 0,0 l/m 6,0 km/h (2 Bft) SO 126 0 min 58 W/m 17,3 C 22,4 C 16,1 km/h (3 Bft)
24.08.2015 18:51 22,2 C 73 % 1000,3 hPa 0,0 l/m 4,9 km/h (1 Bft) S-SO 147 0 min 46 W/m 17,1 C 22,2 C 14,5 km/h (3 Bft)
24.08.2015 18:54 22,2 C 75 % 1000,3 hPa 0,0 l/m 4,8 km/h (1 Bft) O-SO 121 0 min 30 W/m 17,5 C 22,2 C 9,7 km/h (2 Bft)
24.08.2015 18:57 22,0 C 75 % 1000,3 hPa 0,0 l/m 2,3 km/h (1 Bft) O 98 0 min 28 W/m 17,4 C 22,0 C 4,8 km/h (1 Bft)
24.08.2015 19:00 21,7 C 76 % 1000,1 hPa 0,0 l/m 5,2 km/h (1 Bft) O-SO 121 0 min 30 W/m 17,3 C 21,7 C 12,9 km/h (3 Bft)
24.08.2015 19:03 21,6 C 77 % 1000,1 hPa 0,0 l/m 3,1 km/h (1 Bft) S-SO 148 0 min 30 W/m 17,4 C 21,6 C 8,0 km/h (2 Bft)
24.08.2015 19:06 21,5 C 77 % 1000,1 hPa 0,0 l/m 3,6 km/h (1 Bft) N-NO 16 0 min 32 W/m 17,3 C 21,5 C 6,4 km/h (2 Bft)
24.08.2015 19:09 21,6 C 76 % 1000,2 hPa 0,0 l/m 5,8 km/h (2 Bft) SO 124 0 min 33 W/m 17,2 C 21,6 C 11,3 km/h (2 Bft)
24.08.2015 19:12 21,7 C 77 % 1000,2 hPa 0,0 l/m 3,6 km/h (1 Bft) O-SO 104 0 min 25 W/m 17,5 C 21,7 C 8,0 km/h (2 Bft)
24.08.2015 19:15 21,7 C 77 % 1000,0 hPa 0,0 l/m 3,0 km/h (1 Bft) O 83 0 min 30 W/m 17,5 C 21,7 C 6,4 km/h (2 Bft)
24.08.2015 19:18 21,6 C 78 % 999,8 hPa 0,0 l/m 3,4 km/h (1 Bft) SO 128 0 min 37 W/m 17,6 C 21,6 C 11,3 km/h (2 Bft)
24.08.2015 19:21 21,6 C 77 % 999,7 hPa 0,0 l/m 4,3 km/h (1 Bft) SO 137 0 min 51 W/m 17,4 C 21,6 C 11,3 km/h (2 Bft)
24.08.2015 19:24 21,7 C 78 % 999,4 hPa 0,0 l/m 3,8 km/h (1 Bft) S-SW 202 0 min 54 W/m 17,7 C 21,7 C 9,7 km/h (2 Bft)
24.08.2015 19:27 21,8 C 77 % 999,6 hPa 0,0 l/m 4,6 km/h (1 Bft) O-SO 109 0 min 58 W/m 17,6 C 21,8 C 9,7 km/h (2 Bft)
24.08.2015 19:30 22,0 C 76 % 999,7 hPa 0,0 l/m 5,4 km/h (2 Bft) N-NO 25 0 min 54 W/m 17,6 C 22,0 C 12,9 km/h (3 Bft)
24.08.2015 19:33 22,1 C 76 % 999,7 hPa 0,0 l/m 5,2 km/h (1 Bft) O 101 0 min 53 W/m 17,7 C 22,1 C 14,5 km/h (3 Bft)
24.08.2015 19:36 22,2 C 76 % 999,7 hPa 0,0 l/m 4,7 km/h (1 Bft) N 9 0 min 53 W/m 17,8 C 22,2 C 9,7 km/h (2 Bft)
24.08.2015 19:39 22,2 C 75 % 999,7 hPa 0,0 l/m 5,7 km/h (2 Bft) O 84 0 min 63 W/m 17,5 C 22,2 C 16,1 km/h (3 Bft)
24.08.2015 19:42 22,2 C 76 % 999,7 hPa 0,0 l/m 3,3 km/h (1 Bft) SO 132 0 min 40 W/m 17,8 C 22,2 C 8,0 km/h (2 Bft)
24.08.2015 19:45 22,1 C 76 % 999,7 hPa 0,0 l/m 5,9 km/h (2 Bft) NO 52 0 min 49 W/m 17,7 C 22,1 C 14,5 km/h (3 Bft)
24.08.2015 19:48 22,1 C 77 % 999,7 hPa 0,0 l/m 4,4 km/h (1 Bft) O-SO 108 0 min 44 W/m 17,9 C 22,1 C 12,9 km/h (3 Bft)
24.08.2015 19:51 22,0 C 76 % 999,7 hPa 0,0 l/m 3,9 km/h (1 Bft) O-SO 121 0 min 35 W/m 17,6 C 22,0 C 12,9 km/h (3 Bft)
24.08.2015 19:54 22,0 C 77 % 999,8 hPa 0,0 l/m 4,7 km/h (1 Bft) O-SO 123 0 min 37 W/m 17,8 C 22,0 C 14,5 km/h (3 Bft)
24.08.2015 19:57 22,0 C 76 % 999,8 hPa 0,0 l/m 4,9 km/h (1 Bft) O-SO 112 0 min 33 W/m 17,6 C 22,0 C 14,5 km/h (3 Bft)
24.08.2015 20:00 22,1 C 76 % 999,8 hPa 0,0 l/m 6,2 km/h (2 Bft) O-SO 121 0 min 30 W/m 17,7 C 22,1 C 14,5 km/h (3 Bft)
24.08.2015 20:03 22,1 C 76 % 999,8 hPa 0,0 l/m 5,0 km/h (1 Bft) O 99 0 min 23 W/m 17,7 C 22,1 C 11,3 km/h (2 Bft)
24.08.2015 20:06 21,9 C 76 % 999,9 hPa 0,0 l/m 5,0 km/h (1 Bft) O-SO 112 0 min 16 W/m 17,5 C 21,9 C 12,9 km/h (3 Bft)
24.08.2015 20:09 21,9 C 77 % 999,9 hPa 0,0 l/m 4,9 km/h (1 Bft) SO 136 0 min 9 W/m 17,7 C 21,9 C 12,9 km/h (3 Bft)
24.08.2015 20:12 21,8 C 76 % 999,9 hPa 0,0 l/m 5,5 km/h (2 Bft) O-SO 120 0 min 5 W/m 17,4 C 21,8 C 12,9 km/h (3 Bft)
24.08.2015 20:15 21,8 C 76 % 999,9 hPa 0,0 l/m 7,5 km/h (2 Bft) S 172 0 min 0 W/m 17,4 C 21,4 C 17,7 km/h (3 Bft)
24.08.2015 20:18 21,9 C 75 % 999,9 hPa 0,0 l/m 6,0 km/h (2 Bft) S 185 0 min 0 W/m 17,3 C 21,9 C 14,5 km/h (3 Bft)
24.08.2015 20:21 22,0 C 74 % 999,9 hPa 0,0 l/m 8,3 km/h (2 Bft) O-SO 111 0 min 0 W/m 17,1 C 21,4 C 22,5 km/h (4 Bft)
24.08.2015 20:24 22,1 C 74 % 999,9 hPa 0,0 l/m 6,6 km/h (2 Bft) O-SO 119 0 min 0 W/m 17,2 C 22,0 C 14,5 km/h (3 Bft)
24.08.2015 20:27 22,1 C 74 % 999,9 hPa 0,0 l/m 7,3 km/h (2 Bft) O-SO 113 0 min 0 W/m 17,2 C 21,8 C 14,5 km/h (3 Bft)
24.08.2015 20:30 22,1 C 74 % 999,9 hPa 0,0 l/m 7,1 km/h (2 Bft) SO 128 0 min 0 W/m 17,2 C 21,9 C 14,5 km/h (3 Bft)
24.08.2015 20:33 22,1 C 74 % 999,9 hPa 0,0 l/m 7,4 km/h (2 Bft) S-SO 161 0 min 0 W/m 17,2 C 21,8 C 14,5 km/h (3 Bft)
24.08.2015 20:36 22,0 C 74 % 999,9 hPa 0,0 l/m 9,9 km/h (2 Bft) O-SO 111 0 min 0 W/m 17,1 C 20,9 C 25,7 km/h (4 Bft)
24.08.2015 20:39 21,9 C 74 % 999,8 hPa 0,0 l/m 7,1 km/h (2 Bft) S-SO 159 0 min 0 W/m 17,0 C 21,7 C 16,1 km/h (3 Bft)
24.08.2015 20:42 21,9 C 74 % 999,8 hPa 0,0 l/m 7,2 km/h (2 Bft) O-SO 105 0 min 0 W/m 17,0 C 21,6 C 14,5 km/h (3 Bft)
24.08.2015 20:45 21,8 C 75 % 999,8 hPa 0,0 l/m 6,2 km/h (2 Bft) O-SO 105 0 min 0 W/m 17,2 C 21,8 C 14,5 km/h (3 Bft)
24.08.2015 20:48 21,7 C 75 % 999,8 hPa 0,0 l/m 6,4 km/h (2 Bft) SO 126 0 min 0 W/m 17,1 C 21,7 C 11,3 km/h (2 Bft)
24.08.2015 20:51 21,6 C 76 % 999,8 hPa 0,0 l/m 6,9 km/h (2 Bft) SO 140 0 min 0 W/m 17,2 C 21,4 C 14,5 km/h (3 Bft)
24.08.2015 20:54 21,6 C 76 % 999,8 hPa 0,0 l/m 8,5 km/h (2 Bft) S 170 0 min 0 W/m 17,2 C 20,9 C 16,1 km/h (3 Bft)
24.08.2015 20:57 21,5 C 76 % 999,8 hPa 0,0 l/m 4,7 km/h (1 Bft) S-SO 159 0 min 0 W/m 17,1 C 21,5 C 9,7 km/h (2 Bft)
24.08.2015 21:00 21,4 C 76 % 999,8 hPa 0,0 l/m 6,8 km/h (2 Bft) S-SW 208 0 min 0 W/m 17,0 C 21,3 C 14,5 km/h (3 Bft)
24.08.2015 21:03 21,4 C 76 % 999,8 hPa 0,0 l/m 6,4 km/h (2 Bft) S-SO 151 0 min 0 W/m 17,0 C 21,4 C 16,1 km/h (3 Bft)
24.08.2015 21:06 21,3 C 76 % 999,9 hPa 0,0 l/m 6,5 km/h (2 Bft) S 186 0 min 0 W/m 16,9 C 21,3 C 12,9 km/h (3 Bft)
24.08.2015 21:09 21,3 C 77 % 999,9 hPa 0,0 l/m 6,9 km/h (2 Bft) S-SO 157 0 min 0 W/m 17,1 C 21,1 C 12,9 km/h (3 Bft)
24.08.2015 21:12 21,2 C 77 % 999,9 hPa 0,0 l/m 7,0 km/h (2 Bft) SO 126 0 min 0 W/m 17,0 C 21,0 C 19,3 km/h (3 Bft)
24.08.2015 21:15 21,3 C 77 % 1000,0 hPa 0,0 l/m 7,7 km/h (2 Bft) S 169 0 min 0 W/m 17,1 C 20,8 C 19,3 km/h (3 Bft)
24.08.2015 21:18 21,3 C 76 % 1000,1 hPa 0,0 l/m 9,9 km/h (2 Bft) S-SO 161 0 min 0 W/m 16,9 C 20,1 C 20,9 km/h (4 Bft)
24.08.2015 21:21 21,3 C 76 % 1000,0 hPa 0,0 l/m 7,6 km/h (2 Bft) O-SO 108 0 min 0 W/m 16,9 C 20,9 C 14,5 km/h (3 Bft)
24.08.2015 21:24 21,4 C 76 % 1000,1 hPa 0,0 l/m 8,2 km/h (2 Bft) S-SO 150 0 min 0 W/m 17,0 C 20,8 C 14,5 km/h (3 Bft)
24.08.2015 21:27 21,4 C 76 % 1000,1 hPa 0,0 l/m 7,6 km/h (2 Bft) SO 127 0 min 0 W/m 17,0 C 21,0 C 17,7 km/h (3 Bft)
24.08.2015 21:30 21,4 C 76 % 1000,0 hPa 0,0 l/m 7,1 km/h (2 Bft) S-SO 159 0 min 0 W/m 17,0 C 21,1 C 12,9 km/h (3 Bft)
24.08.2015 21:33 21,4 C 76 % 1000,1 hPa 0,0 l/m 7,4 km/h (2 Bft) S-SO 160 0 min 0 W/m 17,0 C 21,0 C 12,9 km/h (3 Bft)
24.08.2015 21:36 21,4 C 76 % 1000,1 hPa 0,0 l/m 8,3 km/h (2 Bft) S 173 0 min 0 W/m 17,0 C 20,7 C 16,1 km/h (3 Bft)
24.08.2015 21:39 21,4 C 76 % 1000,1 hPa 0,0 l/m 9,2 km/h (2 Bft) S-SO 155 0 min 0 W/m 17,0 C 20,4 C 19,3 km/h (3 Bft)
24.08.2015 21:42 21,3 C 76 % 1000,1 hPa 0,0 l/m 6,3 km/h (2 Bft) S-SO 163 0 min 0 W/m 16,9 C 21,3 C 14,5 km/h (3 Bft)
24.08.2015 21:45 21,3 C 76 % 1000,1 hPa 0,0 l/m 6,6 km/h (2 Bft) SO 146 0 min 0 W/m 16,9 C 21,2 C 12,9 km/h (3 Bft)
24.08.2015 21:48 21,3 C 76 % 1000,2 hPa 0,0 l/m 7,2 km/h (2 Bft) SO 126 0 min 0 W/m 16,9 C 21,0 C 12,9 km/h (3 Bft)
24.08.2015 21:51 21,2 C 76 % 1000,1 hPa 0,0 l/m 7,4 km/h (2 Bft) S 173 0 min 0 W/m 16,8 C 20,8 C 14,5 km/h (3 Bft)
24.08.2015 21:54 21,2 C 76 % 1000,2 hPa 0,0 l/m 8,5 km/h (2 Bft) O-SO 117 0 min 0 W/m 16,8 C 20,4 C 16,1 km/h (3 Bft)
24.08.2015 21:57 21,2 C 77 % 1000,1 hPa 0,0 l/m 8,0 km/h (2 Bft) S-SO 159 0 min 0 W/m 17,0 C 20,6 C 14,5 km/h (3 Bft)
24.08.2015 22:00 21,2 C 77 % 1000,1 hPa 0,0 l/m 8,5 km/h (2 Bft) S-SO 147 0 min 0 W/m 17,0 C 20,4 C 14,5 km/h (3 Bft)
24.08.2015 22:03 21,1 C 77 % 1000,2 hPa 0,0 l/m 7,4 km/h (2 Bft) SO 128 0 min 0 W/m 16,9 C 20,7 C 14,5 km/h (3 Bft)
24.08.2015 22:06 21,1 C 77 % 1000,2 hPa 0,0 l/m 8,5 km/h (2 Bft) SO 144 0 min 0 W/m 16,9 C 20,3 C 14,5 km/h (3 Bft)
24.08.2015 22:09 21,0 C 77 % 1000,2 hPa 0,0 l/m 7,6 km/h (2 Bft) S-SO 163 0 min 0 W/m 16,8 C 20,5 C 12,9 km/h (3 Bft)
24.08.2015 22:12 20,9 C 77 % 1000,2 hPa 0,0 l/m 8,4 km/h (2 Bft) S-SO 166 0 min 0 W/m 16,7 C 20,2 C 12,9 km/h (3 Bft)
24.08.2015 22:15 20,9 C 77 % 1000,2 hPa 0,0 l/m 7,9 km/h (2 Bft) S 173 0 min 0 W/m 16,7 C 20,3 C 14,5 km/h (3 Bft)
24.08.2015 22:18 20,8 C 78 % 1000,2 hPa 0,0 l/m 8,1 km/h (2 Bft) S 181 0 min 0 W/m 16,8 C 20,2 C 16,1 km/h (3 Bft)
24.08.2015 22:21 20,8 C 78 % 1000,2 hPa 0,0 l/m 7,4 km/h (2 Bft) SW 215 0 min 0 W/m 16,8 C 20,4 C 16,1 km/h (3 Bft)
24.08.2015 22:24 20,7 C 78 % 1000,2 hPa 0,0 l/m 7,5 km/h (2 Bft) O-SO 113 0 min 0 W/m 16,7 C 20,3 C 16,1 km/h (3 Bft)
24.08.2015 22:27 20,6 C 78 % 1000,2 hPa 0,0 l/m 8,3 km/h (2 Bft) S-SO 166 0 min 0 W/m 16,6 C 19,9 C 25,7 km/h (4 Bft)
24.08.2015 22:30 20,5 C 78 % 1000,2 hPa 0,0 l/m 8,4 km/h (2 Bft) S-SO 167 0 min 0 W/m 16,5 C 19,7 C 17,7 km/h (3 Bft)
24.08.2015 22:33 20,4 C 78 % 1000,2 hPa 0,0 l/m 8,1 km/h (2 Bft) S 175 0 min 0 W/m 16,4 C 19,7 C 12,9 km/h (3 Bft)
24.08.2015 22:36 20,5 C 77 % 1000,2 hPa 0,0 l/m 9,9 km/h (2 Bft) S 170 0 min 0 W/m 16,3 C 19,2 C 19,3 km/h (3 Bft)
24.08.2015 22:39 20,5 C 77 % 1000,2 hPa 0,0 l/m 8,3 km/h (2 Bft) S-SO 164 0 min 0 W/m 16,3 C 19,8 C 16,1 km/h (3 Bft)
24.08.2015 22:42 20,6 C 76 % 1000,3 hPa 0,0 l/m 8,8 km/h (2 Bft) S-SO 160 0 min 0 W/m 16,2 C 19,7 C 17,7 km/h (3 Bft)
24.08.2015 22:45 20,6 C 76 % 1000,3 hPa 0,0 l/m 8,6 km/h (2 Bft) S 172 0 min 0 W/m 16,2 C 19,8 C 17,7 km/h (3 Bft)
24.08.2015 22:48 20,6 C 76 % 1000,3 hPa 0,0 l/m 9,0 km/h (2 Bft) S 173 0 min 0 W/m 16,2 C 19,6 C 16,1 km/h (3 Bft)
24.08.2015 22:51 20,5 C 76 % 1000,4 hPa 0,0 l/m 7,6 km/h (2 Bft) S-SW 194 0 min 0 W/m 16,1 C 20,0 C 16,1 km/h (3 Bft)
24.08.2015 22:54 20,5 C 75 % 1000,4 hPa 0,0 l/m 9,1 km/h (2 Bft) S 189 0 min 0 W/m 15,9 C 19,5 C 20,9 km/h (4 Bft)
24.08.2015 22:57 20,6 C 74 % 1000,4 hPa 0,0 l/m 9,8 km/h (2 Bft) O-SO 111 0 min 0 W/m 15,8 C 19,4 C 16,1 km/h (3 Bft)
24.08.2015 23:00 20,6 C 73 % 1000,4 hPa 0,0 l/m 9,8 km/h (2 Bft) SO 144 0 min 0 W/m 15,6 C 19,4 C 24,1 km/h (4 Bft)
24.08.2015 23:03 20,7 C 73 % 1000,4 hPa 0,0 l/m 8,2 km/h (2 Bft) S 186 0 min 0 W/m 15,7 C 20,0 C 14,5 km/h (3 Bft)
24.08.2015 23:06 20,7 C 72 % 1000,4 hPa 0,0 l/m 10,9 km/h (2 Bft) S-SO 159 0 min 0 W/m 15,5 C 19,1 C 19,3 km/h (3 Bft)
24.08.2015 23:09 20,7 C 72 % 1000,4 hPa 0,0 l/m 11,1 km/h (2 Bft) S-SO 158 0 min 0 W/m 15,5 C 19,1 C 16,1 km/h (3 Bft)
24.08.2015 23:12 20,7 C 71 % 1000,4 hPa 0,0 l/m 8,8 km/h (2 Bft) S-SO 148 0 min 0 W/m 15,2 C 19,8 C 14,5 km/h (3 Bft)
24.08.2015 23:15 20,7 C 71 % 1000,4 hPa 0,0 l/m 7,7 km/h (2 Bft) S 178 0 min 0 W/m 15,2 C 20,2 C 17,7 km/h (3 Bft)
24.08.2015 23:18 20,7 C 71 % 1000,4 hPa 0,0 l/m 9,4 km/h (2 Bft) S-SO 166 0 min 0 W/m 15,2 C 19,6 C 19,3 km/h (3 Bft)
24.08.2015 23:21 20,7 C 71 % 1000,4 hPa 0,0 l/m 11,5 km/h (2 Bft) SO 140 0 min 0 W/m 15,2 C 19,0 C 20,9 km/h (4 Bft)
24.08.2015 23:24 20,7 C 71 % 1000,5 hPa 0,0 l/m 9,9 km/h (2 Bft) S-SO 148 0 min 0 W/m 15,2 C 19,4 C 19,3 km/h (3 Bft)
24.08.2015 23:27 20,6 C 71 % 1000,5 hPa 0,0 l/m 10,4 km/h (2 Bft) S-SO 150 0 min 0 W/m 15,2 C 19,2 C 16,1 km/h (3 Bft)
24.08.2015 23:30 20,6 C 71 % 1000,5 hPa 0,0 l/m 11,8 km/h (2 Bft) S 178 0 min 0 W/m 15,2 C 18,8 C 20,9 km/h (4 Bft)
24.08.2015 23:33 20,6 C 71 % 1000,5 hPa 0,0 l/m 10,6 km/h (2 Bft) S-SW 206 0 min 0 W/m 15,2 C 19,1 C 19,3 km/h (3 Bft)
24.08.2015 23:36 20,6 C 71 % 1000,5 hPa 0,0 l/m 10,0 km/h (2 Bft) SO 128 0 min 0 W/m 15,2 C 19,3 C 19,3 km/h (3 Bft)
24.08.2015 23:39 20,6 C 71 % 1000,6 hPa 0,0 l/m 8,8 km/h (2 Bft) S 171 0 min 0 W/m 15,2 C 19,7 C 17,7 km/h (3 Bft)
24.08.2015 23:42 20,4 C 72 % 1000,6 hPa 0,0 l/m 8,1 km/h (2 Bft) SO 138 0 min 0 W/m 15,2 C 19,7 C 14,5 km/h (3 Bft)
24.08.2015 23:45 20,3 C 72 % 1000,7 hPa 0,0 l/m 7,0 km/h (2 Bft) S-SO 163 0 min 0 W/m 15,1 C 20,1 C 12,9 km/h (3 Bft)
24.08.2015 23:48 20,2 C 73 % 1000,7 hPa 0,0 l/m 7,7 km/h (2 Bft) SO 138 0 min 0 W/m 15,2 C 19,7 C 14,5 km/h (3 Bft)
24.08.2015 23:51 20,1 C 73 % 1000,8 hPa 0,0 l/m 7,6 km/h (2 Bft) S-SO 155 0 min 0 W/m 15,1 C 19,6 C 12,9 km/h (3 Bft)
24.08.2015 23:54 20,0 C 74 % 1000,8 hPa 0,0 l/m 7,7 km/h (2 Bft) S-SO 163 0 min 0 W/m 15,2 C 19,5 C 19,3 km/h (3 Bft)
24.08.2015 23:57 19,9 C 74 % 1000,8 hPa 0,0 l/m 8,8 km/h (2 Bft) SW 214 0 min 0 W/m 15,1 C 18,9 C 17,7 km/h (3 Bft)
_ Min-Zeit 07:42 16:18 19:24 - 18:57 - - - - 06:54 06:39 18:57
Minimum _ 16,6 C 67 % 999,4 hPa - 2,3 km/h (1 Bft) - - - - 12,9 C 15,4 C 4,8 km/h (1 Bft)
_ Max-Zeit 17:03 13:30 00:03 00:00 23:30 - - 11:33 11:48 19:48 17:00 06:51
Maximum _ 23,5 C 85 % 1007,8 hPa 0,0 l/m 11,8 km/h
S (2 Bft)
- - 3 min 824 W/m 17,9 C 23,4 C 27,4 km/h
O (5 Bft)
Durchschnitt _ 19,3 C 76 % 1003,0 hPa #0,0 l/m 6,7 km/h (2 Bft) S-SO - #2:09 h 179 W/m 15,0 C 19,0 C 15,6 km/h (3 Bft)
copyright by Holger Just